Wetterdaten: Dienstag, 07.12.2021
Datum Zeit Temp. Aussen Temp. o. S. Temp +5cm Feuchte Auss Luftdruck Regen Sonnenschein Regendauer Solar Windben Empfang
07.12.2021 00:00 1,0 C 0,6 C 0,0 C 96 % 1004,3 hPa 0,0 l/m 0 min 2 min 0 W/m 16,1 km/h (3 Bft) 100,00 %
07.12.2021 00:02 1,0 C 0,6 C 0,0 C 96 % 1004,4 hPa 0,0 l/m 0 min 2 min 0 W/m 19,3 km/h (3 Bft) 100,00 %
07.12.2021 00:04 1,0 C 0,6 C 0,0 C 96 % 1004,3 hPa 0,0 l/m 0 min 2 min 0 W/m 19,3 km/h (3 Bft) 100,00 %
07.12.2021 00:07 1,0 C 0,6 C 0,0 C 96 % 1004,3 hPa 0,2 l/m 0 min 3 min 0 W/m 16,1 km/h (3 Bft) 97,56 %
07.12.2021 00:08 1,0 C 0,6 C 0,0 C 96 % 1004,3 hPa 0,0 l/m 0 min 1 min 0 W/m 12,9 km/h (3 Bft) 100,00 %
07.12.2021 00:10 1,0 C 0,6 C 0,0 C 96 % 1004,4 hPa 0,0 l/m 0 min 2 min 0 W/m 6,4 km/h (2 Bft) 100,00 %
07.12.2021 00:12 1,0 C 0,6 C 0,0 C 96 % 1004,3 hPa 0,0 l/m 0 min 2 min 0 W/m 6,4 km/h (2 Bft) 100,00 %
07.12.2021 00:14 1,1 C 0,6 C 0,0 C 96 % 1004,3 hPa 0,0 l/m 0 min 2 min 0 W/m 16,1 km/h (3 Bft) 100,00 %
07.12.2021 00:16 1,0 C 0,6 C 0,0 C 97 % 1004,3 hPa 0,0 l/m 0 min 2 min 0 W/m 16,1 km/h (3 Bft) 100,00 %
07.12.2021 00:18 1,1 C 0,6 C 0,0 C 97 % 1004,3 hPa 0,0 l/m 0 min 2 min 0 W/m 12,9 km/h (3 Bft) 97,87 %
07.12.2021 00:20 1,1 C 0,6 C 0,0 C 97 % 1004,4 hPa 0,0 l/m 0 min 2 min 0 W/m 16,1 km/h (3 Bft) 100,00 %
07.12.2021 00:22 1,1 C 0,6 C 0,0 C 97 % 1004,4 hPa 0,2 l/m 0 min 2 min 0 W/m 19,3 km/h (3 Bft) 100,00 %
07.12.2021 00:24 1,1 C 0,6 C 0,0 C 97 % 1004,3 hPa 0,0 l/m 0 min 2 min 0 W/m 16,1 km/h (3 Bft) 97,83 %
07.12.2021 00:26 1,1 C 0,6 C 0,0 C 97 % 1004,3 hPa 0,0 l/m 0 min 2 min 0 W/m 16,1 km/h (3 Bft) 97,87 %
07.12.2021 00:28 1,1 C 0,6 C 0,0 C 97 % 1004,3 hPa 0,0 l/m 0 min 2 min 0 W/m 16,1 km/h (3 Bft) 95,74 %
07.12.2021 00:30 1,1 C 0,6 C 0,0 C 97 % 1004,2 hPa 0,0 l/m 0 min 2 min 0 W/m 12,9 km/h (3 Bft) 97,87 %
07.12.2021 00:32 1,1 C 0,6 C 0,0 C 97 % 1004,3 hPa 0,0 l/m 0 min 2 min 0 W/m 22,5 km/h (4 Bft) 98,11 %
07.12.2021 00:34 1,1 C 0,6 C 0,0 C 97 % 1004,3 hPa 0,0 l/m 0 min 2 min 0 W/m 16,1 km/h (3 Bft) 97,87 %
07.12.2021 00:36 1,1 C 0,6 C 0,0 C 97 % 1004,3 hPa 0,2 l/m 0 min 2 min 0 W/m 9,7 km/h (2 Bft) 97,87 %
07.12.2021 00:38 1,1 C 0,6 C 0,0 C 97 % 1004,4 hPa 0,0 l/m 0 min 2 min 0 W/m 6,4 km/h (2 Bft) 93,62 %
07.12.2021 00:40 1,1 C 0,6 C 0,0 C 97 % 1004,5 hPa 0,0 l/m 0 min 0 min 0 W/m 3,2 km/h (1 Bft) 97,87 %
07.12.2021 00:42 1,2 C 0,6 C 0,0 C 97 % 1004,6 hPa 0,0 l/m 0 min 0 min 0 W/m 6,4 km/h (2 Bft) 97,87 %
07.12.2021 00:44 1,2 C 0,6 C 0,0 C 97 % 1004,5 hPa 0,0 l/m 0 min 2 min 0 W/m 9,7 km/h (2 Bft) 97,83 %
07.12.2021 00:46 1,2 C 0,6 C 0,0 C 97 % 1004,5 hPa 0,0 l/m 0 min 2 min 0 W/m 9,7 km/h (2 Bft) 95,74 %
07.12.2021 00:48 1,2 C 0,6 C 0,0 C 97 % 1004,5 hPa 0,0 l/m 0 min 2 min 0 W/m 6,4 km/h (2 Bft) 97,87 %
07.12.2021 00:50 1,2 C 0,6 C 0,0 C 97 % 1004,6 hPa 0,0 l/m 0 min 2 min 0 W/m 9,7 km/h (2 Bft) 95,74 %
07.12.2021 00:52 1,2 C 1,1 C 0,0 C 97 % 1004,7 hPa 0,0 l/m 0 min 2 min 0 W/m 9,7 km/h (2 Bft) 97,87 %
07.12.2021 00:54 1,2 C 1,1 C 0,6 C 97 % 1004,8 hPa 0,0 l/m 0 min 2 min 0 W/m 6,4 km/h (2 Bft) 93,62 %
07.12.2021 00:56 1,3 C 1,1 C 0,6 C 97 % 1004,8 hPa 0,0 l/m 0 min 2 min 0 W/m 16,1 km/h (3 Bft) 97,83 %
07.12.2021 00:58 1,3 C 1,1 C 0,0 C 97 % 1004,8 hPa 0,0 l/m 0 min 2 min 0 W/m 12,9 km/h (3 Bft) 97,87 %
07.12.2021 01:00 1,3 C 1,1 C 0,6 C 97 % 1004,7 hPa 0,0 l/m 0 min 2 min 0 W/m 9,7 km/h (2 Bft) 97,87 %
07.12.2021 01:02 1,3 C 1,1 C 0,6 C 97 % 1004,8 hPa 0,0 l/m 0 min 2 min 0 W/m 6,4 km/h (2 Bft) 97,87 %
07.12.2021 01:04 1,3 C 1,1 C 0,6 C 97 % 1004,8 hPa 0,0 l/m 0 min 2 min 0 W/m 6,4 km/h (2 Bft) 95,74 %
07.12.2021 01:06 1,3 C 1,1 C 0,6 C 97 % 1004,8 hPa 0,0 l/m 0 min 2 min 0 W/m 6,4 km/h (2 Bft) 95,74 %
07.12.2021 01:08 1,3 C 1,1 C 0,6 C 97 % 1004,8 hPa 0,0 l/m 0 min 2 min 0 W/m 6,4 km/h (2 Bft) 95,65 %
07.12.2021 01:10 1,3 C 1,1 C 0,6 C 97 % 1004,8 hPa 0,2 l/m 0 min 2 min 0 W/m 6,4 km/h (2 Bft) 100,00 %
07.12.2021 01:12 1,3 C 1,1 C 0,6 C 97 % 1004,8 hPa 0,0 l/m 0 min 2 min 0 W/m 9,7 km/h (2 Bft) 97,87 %
07.12.2021 01:14 1,3 C 1,1 C 0,6 C 97 % 1004,8 hPa 0,0 l/m 0 min 2 min 0 W/m 6,4 km/h (2 Bft) 93,62 %
07.12.2021 01:16 1,3 C 1,1 C 0,6 C 97 % 1004,8 hPa 0,0 l/m 0 min 2 min 0 W/m 6,4 km/h (2 Bft) 100,00 %
07.12.2021 01:18 1,3 C 1,1 C 0,6 C 97 % 1004,8 hPa 0,0 l/m 0 min 2 min 0 W/m 3,2 km/h (1 Bft) 97,87 %
07.12.2021 01:20 1,3 C 1,1 C 0,6 C 97 % 1004,9 hPa 0,0 l/m 0 min 2 min 0 W/m 6,4 km/h (2 Bft) 95,65 %
07.12.2021 01:22 1,3 C 1,1 C 0,6 C 97 % 1004,9 hPa 0,0 l/m 0 min 2 min 0 W/m 12,9 km/h (3 Bft) 97,87 %
07.12.2021 01:24 1,3 C 1,1 C 0,6 C 97 % 1004,8 hPa 0,0 l/m 0 min 2 min 0 W/m 6,4 km/h (2 Bft) 97,87 %
07.12.2021 01:26 1,3 C 1,1 C 0,6 C 97 % 1004,9 hPa 0,0 l/m 0 min 2 min 0 W/m 6,4 km/h (2 Bft) 97,87 %
07.12.2021 01:28 1,3 C 1,1 C 0,6 C 97 % 1004,9 hPa 0,0 l/m 0 min 2 min 0 W/m 12,9 km/h (3 Bft) 93,62 %
07.12.2021 01:30 1,3 C 1,1 C 0,6 C 97 % 1004,9 hPa 0,2 l/m 0 min 2 min 0 W/m 3,2 km/h (1 Bft) 97,87 %
07.12.2021 01:32 1,3 C 1,1 C 0,6 C 97 % 1004,9 hPa 0,0 l/m 0 min 2 min 0 W/m 6,4 km/h (2 Bft) 97,83 %
07.12.2021 01:34 1,3 C 1,1 C 0,6 C 97 % 1004,9 hPa 0,0 l/m 0 min 2 min 0 W/m 6,4 km/h (2 Bft) 95,74 %
07.12.2021 01:36 1,3 C 1,1 C 0,6 C 97 % 1004,9 hPa 0,0 l/m 0 min 2 min 0 W/m 12,9 km/h (3 Bft) 97,87 %
07.12.2021 01:38 1,3 C 1,1 C 0,6 C 97 % 1004,9 hPa 0,0 l/m 0 min 2 min 0 W/m 6,4 km/h (2 Bft) 95,74 %
07.12.2021 01:40 1,4 C 1,1 C 0,6 C 97 % 1005,0 hPa 0,0 l/m 0 min 2 min 0 W/m 6,4 km/h (2 Bft) 97,87 %
07.12.2021 01:42 1,4 C 1,1 C 0,6 C 97 % 1005,0 hPa 0,0 l/m 0 min 2 min 0 W/m 6,4 km/h (2 Bft) 97,87 %
07.12.2021 01:44 1,4 C 1,1 C 0,6 C 97 % 1005,0 hPa 0,0 l/m 0 min 2 min 0 W/m 12,9 km/h (3 Bft) 97,83 %
07.12.2021 01:46 1,4 C 1,1 C 0,6 C 97 % 1005,0 hPa 0,0 l/m 0 min 2 min 0 W/m 6,4 km/h (2 Bft) 97,87 %
07.12.2021 01:48 1,4 C 1,1 C 0,6 C 97 % 1005,0 hPa 0,0 l/m 0 min 2 min 0 W/m 6,4 km/h (2 Bft) 100,00 %
07.12.2021 01:50 1,4 C 1,1 C 0,6 C 97 % 1005,1 hPa 0,0 l/m 0 min 2 min 0 W/m 6,4 km/h (2 Bft) 97,87 %
07.12.2021 01:52 1,4 C 1,1 C 0,6 C 97 % 1005,1 hPa 0,2 l/m 0 min 2 min 0 W/m 6,4 km/h (2 Bft) 100,00 %
07.12.2021 01:54 1,4 C 1,1 C 0,6 C 97 % 1005,1 hPa 0,0 l/m 0 min 2 min 0 W/m 9,7 km/h (2 Bft) 100,00 %
07.12.2021 01:56 1,3 C 1,1 C 0,6 C 97 % 1005,2 hPa 0,0 l/m 0 min 2 min 0 W/m 6,4 km/h (2 Bft) 100,00 %
07.12.2021 01:58 1,4 C 1,1 C 0,6 C 97 % 1005,2 hPa 0,0 l/m 0 min 2 min 0 W/m 6,4 km/h (2 Bft) 100,00 %
07.12.2021 02:00 1,4 C 1,1 C 0,6 C 97 % 1005,2 hPa 0,0 l/m 0 min 2 min 0 W/m 9,7 km/h (2 Bft) 100,00 %
07.12.2021 02:02 1,4 C 1,1 C 0,6 C 97 % 1005,3 hPa 0,0 l/m 0 min 2 min 0 W/m 12,9 km/h (3 Bft) 100,00 %
07.12.2021 02:04 1,4 C 1,1 C 0,6 C 97 % 1005,2 hPa 0,0 l/m 0 min 2 min 0 W/m 9,7 km/h (2 Bft) 100,00 %
07.12.2021 02:06 1,4 C 1,1 C 0,6 C 97 % 1005,3 hPa 0,0 l/m 0 min 2 min 0 W/m 9,7 km/h (2 Bft) 97,83 %
07.12.2021 02:08 1,4 C 1,1 C 0,6 C 97 % 1005,4 hPa 0,0 l/m 0 min 2 min 0 W/m 12,9 km/h (3 Bft) 97,87 %
07.12.2021 02:10 1,4 C 1,1 C 0,6 C 97 % 1005,4 hPa 0,0 l/m 0 min 2 min 0 W/m 16,1 km/h (3 Bft) 97,87 %
07.12.2021 02:12 1,4 C 1,1 C 0,6 C 97 % 1005,4 hPa 0,0 l/m 0 min 2 min 0 W/m 19,3 km/h (3 Bft) 95,74 %
07.12.2021 02:14 1,5 C 1,1 C 0,6 C 97 % 1005,5 hPa 0,0 l/m 0 min 2 min 0 W/m 9,7 km/h (2 Bft) 97,87 %
07.12.2021 02:16 1,5 C 1,1 C 0,6 C 97 % 1005,5 hPa 0,0 l/m 0 min 2 min 0 W/m 12,9 km/h (3 Bft) 97,87 %
07.12.2021 02:18 1,6 C 1,1 C 0,6 C 97 % 1005,5 hPa 0,2 l/m 0 min 2 min 0 W/m 6,4 km/h (2 Bft) 97,83 %
07.12.2021 02:20 1,6 C 1,1 C 0,6 C 98 % 1005,5 hPa 0,0 l/m 0 min 2 min 0 W/m 12,9 km/h (3 Bft) 97,87 %
07.12.2021 02:22 1,6 C 1,1 C 0,6 C 98 % 1005,6 hPa 0,0 l/m 0 min 2 min 0 W/m 16,1 km/h (3 Bft) 95,74 %
07.12.2021 02:24 1,6 C 1,1 C 0,6 C 98 % 1005,6 hPa 0,0 l/m 0 min 2 min 0 W/m 12,9 km/h (3 Bft) 97,87 %
07.12.2021 02:26 1,7 C 1,1 C 0,6 C 98 % 1005,7 hPa 0,0 l/m 0 min 2 min 0 W/m 12,9 km/h (3 Bft) 97,87 %
07.12.2021 02:28 1,7 C 1,1 C 0,6 C 98 % 1005,7 hPa 0,0 l/m 0 min 2 min 0 W/m 9,7 km/h (2 Bft) 95,74 %
07.12.2021 02:30 1,7 C 1,7 C 0,6 C 98 % 1005,7 hPa 0,0 l/m 0 min 2 min 0 W/m 9,7 km/h (2 Bft) 97,83 %
07.12.2021 02:32 1,8 C 1,7 C 1,1 C 98 % 1005,7 hPa 0,0 l/m 0 min 2 min 0 W/m 9,7 km/h (2 Bft) 95,74 %
07.12.2021 02:34 1,8 C 1,7 C 1,1 C 98 % 1005,8 hPa 0,2 l/m 0 min 2 min 0 W/m 12,9 km/h (3 Bft) 95,74 %
07.12.2021 02:36 1,8 C 1,7 C 1,1 C 98 % 1005,9 hPa 0,0 l/m 0 min 2 min 0 W/m 12,9 km/h (3 Bft) 93,62 %
07.12.2021 02:38 1,9 C 1,7 C 1,1 C 98 % 1005,9 hPa 0,0 l/m 0 min 2 min 0 W/m 9,7 km/h (2 Bft) 97,87 %
07.12.2021 02:40 1,9 C 1,7 C 1,1 C 98 % 1005,9 hPa 0,0 l/m 0 min 2 min 0 W/m 9,7 km/h (2 Bft) 95,74 %
07.12.2021 02:42 1,9 C 1,7 C 1,1 C 98 % 1005,9 hPa 0,2 l/m 0 min 2 min 0 W/m 12,9 km/h (3 Bft) 97,83 %
07.12.2021 02:44 2,0 C 1,7 C 1,1 C 98 % 1006,0 hPa 0,0 l/m 0 min 2 min 0 W/m 6,4 km/h (2 Bft) 97,87 %
07.12.2021 02:46 2,0 C 1,7 C 1,1 C 98 % 1006,1 hPa 0,2 l/m 0 min 2 min 0 W/m 9,7 km/h (2 Bft) 93,62 %
07.12.2021 02:48 2,1 C 1,7 C 1,1 C 98 % 1006,1 hPa 0,0 l/m 0 min 2 min 0 W/m 9,7 km/h (2 Bft) 54,55 %
07.12.2021 02:50 2,1 C 1,7 C 1,1 C 98 % 1006,1 hPa 0,2 l/m 0 min 2 min 0 W/m 12,9 km/h (3 Bft) 97,87 %
07.12.2021 02:52 2,1 C 1,7 C 1,1 C 98 % 1006,2 hPa 0,2 l/m 0 min 2 min 0 W/m 9,7 km/h (2 Bft) 97,87 %
07.12.2021 02:54 2,1 C 1,7 C 1,1 C 98 % 1006,3 hPa 0,2 l/m 0 min 2 min 0 W/m 9,7 km/h (2 Bft) 93,48 %
07.12.2021 02:56 2,1 C 1,7 C 1,1 C 98 % 1006,3 hPa 0,0 l/m 0 min 2 min 0 W/m 19,3 km/h (3 Bft) 93,62 %
07.12.2021 02:58 2,1 C 1,7 C 1,1 C 98 % 1006,3 hPa 0,2 l/m 0 min 2 min 0 W/m 12,9 km/h (3 Bft) 97,87 %
07.12.2021 03:00 2,2 C 1,7 C 1,1 C 98 % 1006,5 hPa 0,0 l/m 0 min 2 min 0 W/m 9,7 km/h (2 Bft) 97,87 %
07.12.2021 03:02 2,2 C 1,7 C 1,1 C 98 % 1006,6 hPa 0,2 l/m 0 min 2 min 0 W/m 22,5 km/h (4 Bft) 97,87 %
07.12.2021 03:04 2,2 C 1,7 C 1,1 C 98 % 1006,6 hPa 0,0 l/m 0 min 2 min 0 W/m 12,9 km/h (3 Bft) 95,74 %
07.12.2021 03:06 2,2 C 1,7 C 1,1 C 98 % 1006,7 hPa 0,2 l/m 0 min 2 min 0 W/m 12,9 km/h (3 Bft) 95,65 %
07.12.2021 03:08 2,2 C 1,7 C 1,1 C 98 % 1006,6 hPa 0,0 l/m 0 min 2 min 0 W/m 9,7 km/h (2 Bft) 97,87 %
07.12.2021 03:10 2,2 C 1,7 C 1,1 C 98 % 1006,6 hPa 0,2 l/m 0 min 2 min 0 W/m 9,7 km/h (2 Bft) 95,74 %
07.12.2021 03:12 2,2 C 1,7 C 1,1 C 98 % 1006,6 hPa 0,0 l/m 0 min 2 min 0 W/m 16,1 km/h (3 Bft) 96,00 %
07.12.2021 03:14 2,2 C 1,7 C 1,1 C 98 % 1006,6 hPa 0,0 l/m 0 min 2 min 0 W/m 12,9 km/h (3 Bft) 93,88 %
07.12.2021 03:16 2,2 C 1,7 C 1,1 C 98 % 1006,6 hPa 0,2 l/m 0 min 2 min 0 W/m 12,9 km/h (3 Bft) 95,74 %
07.12.2021 03:18 2,3 C 2,2 C 1,1 C 98 % 1006,7 hPa 0,0 l/m 0 min 2 min 0 W/m 22,5 km/h (4 Bft) 95,65 %
07.12.2021 03:20 2,4 C 2,2 C 1,7 C 98 % 1006,7 hPa 0,2 l/m 0 min 2 min 0 W/m 16,1 km/h (3 Bft) 95,74 %
07.12.2021 03:22 2,5 C 2,2 C 1,7 C 98 % 1006,6 hPa 0,0 l/m 0 min 2 min 0 W/m 25,7 km/h (4 Bft) 93,62 %
07.12.2021 03:24 2,6 C 2,2 C 1,7 C 98 % 1006,6 hPa 0,0 l/m 0 min 2 min 0 W/m 19,3 km/h (3 Bft) 95,74 %
07.12.2021 03:26 2,7 C 2,2 C 1,7 C 98 % 1006,7 hPa 0,0 l/m 0 min 2 min 0 W/m 9,7 km/h (2 Bft) 93,62 %
07.12.2021 03:28 2,7 C 2,2 C 1,7 C 98 % 1006,8 hPa 0,0 l/m 0 min 0 min 0 W/m 19,3 km/h (3 Bft) 93,62 %
07.12.2021 03:30 2,7 C 2,2 C 1,7 C 98 % 1006,7 hPa 0,0 l/m 0 min 2 min 0 W/m 16,1 km/h (3 Bft) 93,48 %
07.12.2021 03:32 2,7 C 2,2 C 1,7 C 98 % 1006,7 hPa 0,0 l/m 0 min 0 min 0 W/m 9,7 km/h (2 Bft) 95,74 %
07.12.2021 03:34 2,7 C 2,2 C 1,7 C 98 % 1006,8 hPa 0,0 l/m 0 min 0 min 0 W/m 6,4 km/h (2 Bft) 95,74 %
07.12.2021 03:36 2,7 C 2,2 C 1,7 C 98 % 1006,8 hPa 0,2 l/m 0 min 0 min 0 W/m 6,4 km/h (2 Bft) 97,87 %
07.12.2021 03:38 2,7 C 2,2 C 1,7 C 98 % 1006,9 hPa 0,0 l/m 0 min 0 min 0 W/m 9,7 km/h (2 Bft) 95,74 %
07.12.2021 03:40 2,7 C 2,2 C 1,7 C 98 % 1006,8 hPa 0,0 l/m 0 min 0 min 0 W/m 12,9 km/h (3 Bft) 97,87 %
07.12.2021 03:42 2,7 C 2,2 C 1,7 C 98 % 1007,1 hPa 0,0 l/m 0 min 0 min 0 W/m 9,7 km/h (2 Bft) 100,00 %
07.12.2021 03:44 2,7 C 2,2 C 1,7 C 98 % 1006,9 hPa 0,0 l/m 0 min 0 min 0 W/m 9,7 km/h (2 Bft) 97,87 %
07.12.2021 03:46 2,7 C 2,2 C 1,7 C 98 % 1007,1 hPa 0,0 l/m 0 min 0 min 0 W/m 6,4 km/h (2 Bft) 100,00 %
07.12.2021 03:48 2,7 C 2,2 C 1,7 C 98 % 1007,1 hPa 0,0 l/m 0 min 0 min 0 W/m 9,7 km/h (2 Bft) 100,00 %
07.12.2021 03:50 2,7 C 2,2 C 1,7 C 98 % 1007,2 hPa 0,0 l/m 0 min 0 min 0 W/m 12,9 km/h (3 Bft) 97,87 %
07.12.2021 03:52 2,7 C 2,2 C 1,7 C 98 % 1007,3 hPa 0,0 l/m 0 min 0 min 0 W/m 9,7 km/h (2 Bft) 100,00 %
07.12.2021 03:54 2,7 C 2,2 C 1,7 C 98 % 1007,4 hPa 0,0 l/m 0 min 0 min 0 W/m 9,7 km/h (2 Bft) 100,00 %
07.12.2021 03:56 2,7 C 2,2 C 1,7 C 98 % 1007,4 hPa 0,0 l/m 0 min 0 min 0 W/m 6,4 km/h (2 Bft) 100,00 %
07.12.2021 03:58 2,7 C 2,2 C 1,7 C 98 % 1007,5 hPa 0,0 l/m 0 min 0 min 0 W/m 12,9 km/h (3 Bft) 100,00 %
07.12.2021 04:00 2,7 C 2,2 C 1,7 C 98 % 1007,4 hPa 0,0 l/m 0 min 0 min 0 W/m 16,1 km/h (3 Bft) 97,87 %
07.12.2021 04:02 2,6 C 2,2 C 1,7 C 98 % 1007,5 hPa 0,0 l/m 0 min 0 min 0 W/m 16,1 km/h (3 Bft) 91,67 %
07.12.2021 04:04 2,7 C 2,2 C 1,7 C 98 % 1007,5 hPa 0,0 l/m 0 min 0 min 0 W/m 12,9 km/h (3 Bft) 100,00 %
07.12.2021 04:06 2,7 C 2,2 C 1,7 C 98 % 1007,5 hPa 0,0 l/m 0 min 0 min 0 W/m 6,4 km/h (2 Bft) 100,00 %
07.12.2021 04:08 2,7 C 2,2 C 1,7 C 98 % 1007,5 hPa 0,0 l/m 0 min 0 min 0 W/m 9,7 km/h (2 Bft) 100,00 %
07.12.2021 04:10 2,7 C 2,2 C 1,7 C 98 % 1007,5 hPa 0,0 l/m 0 min 0 min 0 W/m 6,4 km/h (2 Bft) 100,00 %
07.12.2021 04:12 2,6 C 2,2 C 1,7 C 98 % 1007,5 hPa 0,0 l/m 0 min 0 min 0 W/m 3,2 km/h (1 Bft) 100,00 %
07.12.2021 04:14 2,7 C 2,2 C 1,7 C 98 % 1007,5 hPa 0,0 l/m 0 min 0 min 0 W/m 3,2 km/h (1 Bft) 97,87 %
07.12.2021 04:16 2,6 C 2,2 C 1,7 C 98 % 1007,5 hPa 0,0 l/m 0 min 0 min 0 W/m 6,4 km/h (2 Bft) 100,00 %
07.12.2021 04:18 2,6 C 2,2 C 1,7 C 98 % 1007,6 hPa 0,0 l/m 0 min 0 min 0 W/m 3,2 km/h (1 Bft) 100,00 %
07.12.2021 04:20 2,6 C 2,2 C 1,7 C 98 % 1007,6 hPa 0,0 l/m 0 min 0 min 0 W/m 3,2 km/h (1 Bft) 100,00 %
07.12.2021 04:22 2,6 C 2,2 C 1,7 C 98 % 1007,5 hPa 0,0 l/m 0 min 0 min 0 W/m 3,2 km/h (1 Bft) 100,00 %
07.12.2021 04:24 2,6 C 2,2 C 1,7 C 98 % 1007,6 hPa 0,0 l/m 0 min 0 min 0 W/m 0,0 km/h (0 Bft) 100,00 %
07.12.2021 04:26 2,6 C 2,2 C 1,7 C 98 % 1007,6 hPa 0,0 l/m 0 min 0 min 0 W/m 3,2 km/h (1 Bft) 100,00 %
07.12.2021 04:28 2,6 C 2,2 C 1,7 C 98 % 1007,8 hPa 0,0 l/m 0 min 0 min 0 W/m 3,2 km/h (1 Bft) 100,00 %
07.12.2021 04:30 2,5 C 2,2 C 1,7 C 98 % 1007,8 hPa 0,0 l/m 0 min 0 min 0 W/m 3,2 km/h (1 Bft) 100,00 %
07.12.2021 04:32 2,5 C 1,7 C 1,7 C 98 % 1007,8 hPa 0,0 l/m 0 min 0 min 0 W/m 0,0 km/h (0 Bft) 97,87 %
07.12.2021 04:34 2,5 C 2,2 C 1,7 C 98 % 1007,8 hPa 0,0 l/m 0 min 0 min 0 W/m 3,2 km/h (1 Bft) 100,00 %
07.12.2021 04:36 2,5 C 2,2 C 1,7 C 98 % 1007,9 hPa 0,0 l/m 0 min 0 min 0 W/m 6,4 km/h (2 Bft) 100,00 %
07.12.2021 04:38 2,5 C 2,2 C 1,7 C 98 % 1007,9 hPa 0,0 l/m 0 min 0 min 0 W/m 6,4 km/h (2 Bft) 100,00 %
07.12.2021 04:40 2,6 C 2,2 C 1,7 C 98 % 1007,9 hPa 0,0 l/m 0 min 0 min 0 W/m 6,4 km/h (2 Bft) 100,00 %
07.12.2021 04:42 2,6 C 2,2 C 1,7 C 98 % 1007,9 hPa 0,0 l/m 0 min 0 min 0 W/m 12,9 km/h (3 Bft) 100,00 %
07.12.2021 04:44 2,7 C 2,2 C 1,7 C 98 % 1007,9 hPa 0,0 l/m 0 min 0 min 0 W/m 6,4 km/h (2 Bft) 100,00 %
07.12.2021 04:46 2,7 C 2,2 C 1,7 C 98 % 1008,0 hPa 0,0 l/m 0 min 0 min 0 W/m 12,9 km/h (3 Bft) 97,87 %
07.12.2021 04:48 2,8 C 2,2 C 1,7 C 98 % 1008,0 hPa 0,0 l/m 0 min 0 min 0 W/m 6,4 km/h (2 Bft) 100,00 %
07.12.2021 04:50 2,8 C 2,2 C 1,7 C 98 % 1008,0 hPa 0,0 l/m 0 min 0 min 0 W/m 12,9 km/h (3 Bft) 100,00 %
07.12.2021 04:52 2,8 C 2,2 C 1,7 C 98 % 1008,0 hPa 0,0 l/m 0 min 0 min 0 W/m 16,1 km/h (3 Bft) 100,00 %
07.12.2021 04:54 2,9 C 2,8 C 1,7 C 98 % 1008,1 hPa 0,0 l/m 0 min 0 min 0 W/m 9,7 km/h (2 Bft) 100,00 %
07.12.2021 04:56 2,9 C 2,8 C 1,7 C 98 % 1008,1 hPa 0,0 l/m 0 min 0 min 0 W/m 9,7 km/h (2 Bft) 97,87 %
07.12.2021 04:58 2,9 C 2,8 C 1,7 C 98 % 1008,0 hPa 0,0 l/m 0 min 0 min 0 W/m 6,4 km/h (2 Bft) 95,74 %
07.12.2021 05:00 2,9 C 2,2 C 1,7 C 98 % 1008,1 hPa 0,0 l/m 0 min 0 min 0 W/m 6,4 km/h (2 Bft) 95,74 %
07.12.2021 05:02 2,9 C 2,2 C 1,7 C 98 % 1008,1 hPa 0,0 l/m 0 min 0 min 0 W/m 12,9 km/h (3 Bft) 97,87 %
07.12.2021 05:04 2,9 C 2,8 C 1,7 C 98 % 1008,2 hPa 0,0 l/m 0 min 0 min 0 W/m 12,9 km/h (3 Bft) 100,00 %
07.12.2021 05:06 3,0 C 2,8 C 1,7 C 98 % 1008,2 hPa 0,0 l/m 0 min 0 min 0 W/m 12,9 km/h (3 Bft) 93,62 %
07.12.2021 05:08 3,0 C 2,8 C 1,7 C 98 % 1008,2 hPa 0,0 l/m 0 min 0 min 0 W/m 6,4 km/h (2 Bft) 95,74 %
07.12.2021 05:10 2,9 C 2,8 C 1,7 C 98 % 1008,2 hPa 0,0 l/m 0 min 0 min 0 W/m 12,9 km/h (3 Bft) 95,74 %
07.12.2021 05:12 3,0 C 2,8 C 1,7 C 98 % 1008,2 hPa 0,0 l/m 0 min 0 min 0 W/m 12,9 km/h (3 Bft) 93,62 %
07.12.2021 05:14 3,0 C 2,8 C 1,7 C 98 % 1008,3 hPa 0,0 l/m 0 min 0 min 0 W/m 16,1 km/h (3 Bft) 95,74 %
07.12.2021 05:16 3,0 C 2,8 C 1,7 C 98 % 1008,4 hPa 0,0 l/m 0 min 0 min 0 W/m 12,9 km/h (3 Bft) 95,65 %
07.12.2021 05:18 3,0 C 2,8 C 1,7 C 98 % 1008,5 hPa 0,0 l/m 0 min 0 min 0 W/m 12,9 km/h (3 Bft) 95,74 %
07.12.2021 05:20 3,0 C 2,8 C 1,7 C 98 % 1008,4 hPa 0,0 l/m 0 min 0 min 0 W/m 12,9 km/h (3 Bft) 93,62 %
07.12.2021 05:22 3,0 C 2,8 C 1,7 C 98 % 1008,4 hPa 0,0 l/m 0 min 0 min 0 W/m 12,9 km/h (3 Bft) 93,62 %
07.12.2021 05:24 3,0 C 2,2 C 1,7 C 98 % 1008,4 hPa 0,0 l/m 0 min 0 min 0 W/m 12,9 km/h (3 Bft) 95,74 %
07.12.2021 05:26 3,0 C 2,2 C 1,7 C 98 % 1008,5 hPa 0,0 l/m 0 min 0 min 0 W/m 16,1 km/h (3 Bft) 93,62 %
07.12.2021 05:28 3,0 C 2,2 C 1,7 C 98 % 1008,6 hPa 0,0 l/m 0 min 0 min 0 W/m 12,9 km/h (3 Bft) 93,48 %
07.12.2021 05:30 2,9 C 2,2 C 1,7 C 98 % 1008,5 hPa 0,0 l/m 0 min 0 min 0 W/m 12,9 km/h (3 Bft) 93,62 %
07.12.2021 05:32 2,9 C 2,2 C 1,7 C 98 % 1008,6 hPa 0,0 l/m 0 min 0 min 0 W/m 16,1 km/h (3 Bft) 93,62 %
07.12.2021 05:34 3,0 C 2,2 C 1,7 C 98 % 1008,6 hPa 0,0 l/m 0 min 0 min 0 W/m 12,9 km/h (3 Bft) 93,62 %
07.12.2021 05:36 2,9 C 2,2 C 1,7 C 98 % 1008,6 hPa 0,0 l/m 0 min 0 min 0 W/m 16,1 km/h (3 Bft) 91,49 %
07.12.2021 05:38 2,9 C 2,2 C 1,7 C 98 % 1008,6 hPa 0,0 l/m 0 min 0 min 0 W/m 16,1 km/h (3 Bft) 91,49 %
07.12.2021 05:40 2,9 C 2,2 C 1,7 C 98 % 1008,6 hPa 0,0 l/m 0 min 0 min 0 W/m 12,9 km/h (3 Bft) 95,65 %
07.12.2021 05:42 3,0 C 2,2 C 1,7 C 98 % 1008,6 hPa 0,0 l/m 0 min 0 min 0 W/m 9,7 km/h (2 Bft) 95,74 %
07.12.2021 05:44 3,0 C 2,2 C 1,7 C 98 % 1008,6 hPa 0,0 l/m 0 min 0 min 0 W/m 12,9 km/h (3 Bft) 95,74 %
07.12.2021 05:46 2,9 C 2,2 C 1,7 C 98 % 1008,7 hPa 0,0 l/m 0 min 0 min 0 W/m 12,9 km/h (3 Bft) 95,74 %
07.12.2021 05:48 2,9 C 2,8 C 1,7 C 98 % 1008,7 hPa 0,0 l/m 0 min 0 min 0 W/m 16,1 km/h (3 Bft) 93,62 %
07.12.2021 05:50 2,9 C 2,2 C 1,7 C 98 % 1008,7 hPa 0,0 l/m 0 min 0 min 0 W/m 12,9 km/h (3 Bft) 95,74 %
07.12.2021 05:52 2,9 C 2,2 C 1,7 C 98 % 1008,7 hPa 0,0 l/m 0 min 0 min 0 W/m 12,9 km/h (3 Bft) 93,48 %
07.12.2021 05:54 2,9 C 2,2 C 1,7 C 98 % 1008,7 hPa 0,0 l/m 0 min 0 min 0 W/m 12,9 km/h (3 Bft) 95,74 %
07.12.2021 05:56 2,9 C 2,2 C 1,7 C 98 % 1008,8 hPa 0,0 l/m 0 min 0 min 0 W/m 12,9 km/h (3 Bft) 93,62 %
07.12.2021 05:58 2,9 C 2,2 C 1,7 C 98 % 1008,8 hPa 0,0 l/m 0 min 0 min 0 W/m 16,1 km/h (3 Bft) 97,87 %
07.12.2021 06:00 2,9 C 2,2 C 1,7 C 98 % 1008,8 hPa 0,0 l/m 0 min 0 min 0 W/m 6,4 km/h (2 Bft) 97,87 %
07.12.2021 06:02 2,9 C 2,2 C 1,7 C 98 % 1008,8 hPa 0,0 l/m 0 min 0 min 0 W/m 12,9 km/h (3 Bft) 95,74 %
07.12.2021 06:04 2,9 C 2,2 C 1,7 C 98 % 1008,9 hPa 0,0 l/m 0 min 0 min 0 W/m 12,9 km/h (3 Bft) 95,65 %
07.12.2021 06:08 2,8 C 2,2 C 1,7 C 98 % 1008,9 hPa 0,0 l/m 0 min 0 min 0 W/m 12,9 km/h (3 Bft) 98,94 %
07.12.2021 06:10 2,8 C 2,2 C 1,7 C 98 % 1008,9 hPa 0,0 l/m 0 min 0 min 0 W/m 6,4 km/h (2 Bft) 100,00 %
07.12.2021 06:12 2,8 C 2,2 C 1,7 C 98 % 1009,0 hPa 0,0 l/m 0 min 0 min 0 W/m 12,9 km/h (3 Bft) 97,87 %
07.12.2021 06:14 2,8 C 2,2 C 1,7 C 98 % 1009,0 hPa 0,0 l/m 0 min 0 min 0 W/m 16,1 km/h (3 Bft) 100,00 %
07.12.2021 06:16 2,8 C 2,2 C 1,7 C 98 % 1008,9 hPa 0,0 l/m 0 min 0 min 0 W/m 9,7 km/h (2 Bft) 97,83 %
07.12.2021 06:18 2,8 C 2,2 C 1,7 C 98 % 1009,0 hPa 0,0 l/m 0 min 0 min 0 W/m 16,1 km/h (3 Bft) 100,00 %
07.12.2021 06:20 2,8 C 2,2 C 1,7 C 98 % 1009,0 hPa 0,0 l/m 0 min 0 min 0 W/m 12,9 km/h (3 Bft) 97,87 %
07.12.2021 06:22 2,8 C 2,2 C 1,7 C 98 % 1009,1 hPa 0,0 l/m 0 min 0 min 0 W/m 9,7 km/h (2 Bft) 100,00 %
07.12.2021 06:24 2,8 C 2,2 C 1,7 C 98 % 1009,2 hPa 0,0 l/m 0 min 0 min 0 W/m 12,9 km/h (3 Bft) 100,00 %
07.12.2021 06:26 2,8 C 2,2 C 1,7 C 98 % 1009,2 hPa 0,0 l/m 0 min 0 min 0 W/m 16,1 km/h (3 Bft) 100,00 %
07.12.2021 06:28 2,8 C 2,2 C 1,7 C 98 % 1009,2 hPa 0,0 l/m 0 min 0 min 0 W/m 12,9 km/h (3 Bft) 100,00 %
07.12.2021 06:30 2,8 C 2,2 C 1,7 C 98 % 1009,2 hPa 0,0 l/m 0 min 0 min 0 W/m 19,3 km/h (3 Bft) 100,00 %
07.12.2021 06:32 2,8 C 2,2 C 1,7 C 98 % 1009,2 hPa 0,0 l/m 0 min 0 min 0 W/m 12,9 km/h (3 Bft) 100,00 %
07.12.2021 06:34 2,8 C 2,2 C 1,7 C 98 % 1009,2 hPa 0,0 l/m 0 min 0 min 0 W/m 16,1 km/h (3 Bft) 100,00 %
07.12.2021 06:36 2,8 C 2,2 C 1,7 C 98 % 1009,3 hPa 0,0 l/m 0 min 0 min 0 W/m 12,9 km/h (3 Bft) 100,00 %
07.12.2021 06:38 2,8 C 2,2 C 1,7 C 98 % 1009,4 hPa 0,0 l/m 0 min 0 min 0 W/m 12,9 km/h (3 Bft) 100,00 %
07.12.2021 06:40 2,8 C 2,2 C 1,7 C 98 % 1009,4 hPa 0,0 l/m 0 min 0 min 0 W/m 12,9 km/h (3 Bft) 97,22 %
07.12.2021 06:42 2,8 C 2,2 C 1,7 C 98 % 1009,4 hPa 0,0 l/m 0 min 0 min 0 W/m 12,9 km/h (3 Bft) 100,00 %
07.12.2021 06:44 2,8 C 2,2 C 1,7 C 98 % 1009,5 hPa 0,0 l/m 0 min 0 min 0 W/m 12,9 km/h (3 Bft) 100,00 %
07.12.2021 06:46 2,8 C 2,2 C 1,7 C 98 % 1009,4 hPa 0,0 l/m 0 min 0 min 0 W/m 12,9 km/h (3 Bft) 100,00 %
07.12.2021 06:48 2,8 C 2,2 C 1,7 C 98 % 1009,4 hPa 0,0 l/m 0 min 0 min 0 W/m 6,4 km/h (2 Bft) 100,00 %
07.12.2021 06:50 2,8 C 2,2 C 1,7 C 98 % 1009,5 hPa 0,0 l/m 0 min 0 min 0 W/m 6,4 km/h (2 Bft) 100,00 %
07.12.2021 06:52 2,7 C 2,2 C 1,7 C 98 % 1009,6 hPa 0,0 l/m 0 min 0 min 0 W/m 9,7 km/h (2 Bft) 97,87 %
07.12.2021 06:54 2,7 C 2,2 C 1,7 C 98 % 1009,6 hPa 0,0 l/m 0 min 0 min 0 W/m 12,9 km/h (3 Bft) 100,00 %
07.12.2021 06:56 2,7 C 2,2 C 1,7 C 98 % 1009,6 hPa 0,0 l/m 0 min 0 min 0 W/m 6,4 km/h (2 Bft) 97,87 %
07.12.2021 06:58 2,7 C 2,2 C 1,7 C 98 % 1009,7 hPa 0,0 l/m 0 min 0 min 0 W/m 12,9 km/h (3 Bft) 93,62 %
07.12.2021 07:00 2,7 C 2,2 C 1,7 C 98 % 1009,8 hPa 0,0 l/m 0 min 0 min 0 W/m 12,9 km/h (3 Bft) 97,87 %
07.12.2021 07:02 2,6 C 2,2 C 1,7 C 98 % 1009,8 hPa 0,0 l/m 0 min 0 min 0 W/m 9,7 km/h (2 Bft) 95,74 %
07.12.2021 07:04 2,6 C 2,2 C 1,7 C 98 % 1009,8 hPa 0,0 l/m 0 min 0 min 0 W/m 12,9 km/h (3 Bft) 97,87 %
07.12.2021 07:06 2,6 C 2,2 C 1,7 C 98 % 1009,8 hPa 0,0 l/m 0 min 0 min 0 W/m 16,1 km/h (3 Bft) 97,83 %
07.12.2021 07:08 2,6 C 2,2 C 1,7 C 98 % 1009,8 hPa 0,0 l/m 0 min 0 min 0 W/m 9,7 km/h (2 Bft) 97,87 %
07.12.2021 07:10 2,6 C 2,2 C 1,7 C 98 % 1009,9 hPa 0,0 l/m 0 min 0 min 0 W/m 12,9 km/h (3 Bft) 97,87 %
07.12.2021 07:12 2,6 C 2,2 C 1,7 C 98 % 1010,0 hPa 0,0 l/m 0 min 0 min 0 W/m 6,4 km/h (2 Bft) 97,87 %
07.12.2021 07:14 2,6 C 2,2 C 1,7 C 98 % 1010,0 hPa 0,0 l/m 0 min 0 min 0 W/m 16,1 km/h (3 Bft) 97,87 %
07.12.2021 07:16 2,6 C 2,2 C 1,7 C 98 % 1009,9 hPa 0,0 l/m 0 min 0 min 0 W/m 12,9 km/h (3 Bft) 97,87 %
07.12.2021 07:18 2,6 C 2,2 C 1,7 C 98 % 1010,0 hPa 0,0 l/m 0 min 0 min 0 W/m 6,4 km/h (2 Bft) 97,83 %
07.12.2021 07:20 2,6 C 2,2 C 1,7 C 98 % 1010,0 hPa 0,0 l/m 0 min 0 min 0 W/m 12,9 km/h (3 Bft) 95,74 %
07.12.2021 07:22 2,6 C 2,2 C 1,7 C 98 % 1010,1 hPa 0,0 l/m 0 min 0 min 0 W/m 12,9 km/h (3 Bft) 97,87 %
07.12.2021 07:24 2,6 C 2,2 C 1,7 C 98 % 1010,2 hPa 0,0 l/m 0 min 0 min 0 W/m 6,4 km/h (2 Bft) 97,87 %
07.12.2021 07:26 2,6 C 2,2 C 1,7 C 98 % 1010,2 hPa 0,0 l/m 0 min 0 min 0 W/m 9,7 km/h (2 Bft) 97,87 %
07.12.2021 07:28 2,6 C 2,2 C 1,7 C 98 % 1010,2 hPa 0,0 l/m 0 min 0 min 0 W/m 12,9 km/h (3 Bft) 97,83 %
07.12.2021 07:30 2,6 C 2,2 C 1,7 C 98 % 1010,4 hPa 0,0 l/m 0 min 0 min 0 W/m 9,7 km/h (2 Bft) 97,87 %
07.12.2021 07:32 2,6 C 2,2 C 1,7 C 98 % 1010,3 hPa 0,0 l/m 0 min 0 min 0 W/m 6,4 km/h (2 Bft) 100,00 %
07.12.2021 07:34 2,6 C 2,2 C 1,7 C 98 % 1010,3 hPa 0,0 l/m 0 min 0 min 0 W/m 3,2 km/h (1 Bft) 100,00 %
07.12.2021 07:36 2,6 C 2,2 C 1,7 C 98 % 1010,5 hPa 0,0 l/m 0 min 0 min 0 W/m 12,9 km/h (3 Bft) 100,00 %
07.12.2021 07:38 2,6 C 2,2 C 1,7 C 98 % 1010,3 hPa 0,0 l/m 0 min 0 min 0 W/m 16,1 km/h (3 Bft) 100,00 %
07.12.2021 07:40 2,6 C 2,2 C 1,7 C 98 % 1010,3 hPa 0,0 l/m 0 min 0 min 0 W/m 12,9 km/h (3 Bft) 97,87 %
07.12.2021 07:42 2,6 C 2,2 C 1,7 C 98 % 1010,4 hPa 0,0 l/m 0 min 0 min 0 W/m 9,7 km/h (2 Bft) 100,00 %
07.12.2021 07:44 2,5 C 1,7 C 1,7 C 98 % 1010,4 hPa 0,0 l/m 0 min 0 min 0 W/m 6,4 km/h (2 Bft) 97,87 %
07.12.2021 07:46 2,5 C 1,7 C 1,7 C 98 % 1010,2 hPa 0,0 l/m 0 min 0 min 0 W/m 12,9 km/h (3 Bft) 100,00 %
07.12.2021 07:48 2,5 C 1,7 C 1,7 C 98 % 1010,2 hPa 0,0 l/m 0 min 0 min 0 W/m 9,7 km/h (2 Bft) 100,00 %
07.12.2021 07:50 2,5 C 1,7 C 1,1 C 98 % 1010,3 hPa 0,0 l/m 0 min 0 min 0 W/m 12,9 km/h (3 Bft) 97,87 %
07.12.2021 07:52 2,4 C 1,7 C 1,1 C 98 % 1010,3 hPa 0,0 l/m 0 min 0 min 0 W/m 19,3 km/h (3 Bft) 97,87 %
07.12.2021 07:54 2,4 C 1,7 C 1,7 C 98 % 1010,1 hPa 0,0 l/m 0 min 0 min 0 W/m 12,9 km/h (3 Bft) 95,74 %
07.12.2021 07:56 2,4 C 2,2 C 1,7 C 98 % 1010,2 hPa 0,0 l/m 0 min 0 min 0 W/m 16,1 km/h (3 Bft) 97,87 %
07.12.2021 07:58 2,4 C 2,2 C 1,7 C 98 % 1010,2 hPa 0,0 l/m 0 min 0 min 0 W/m 16,1 km/h (3 Bft) 97,83 %
07.12.2021 08:00 2,4 C 1,7 C 1,1 C 98 % 1010,3 hPa 0,0 l/m 0 min 0 min 0 W/m 12,9 km/h (3 Bft) 97,87 %
07.12.2021 08:02 2,4 C 1,7 C 1,1 C 98 % 1010,1 hPa 0,0 l/m 0 min 0 min 0 W/m 12,9 km/h (3 Bft) 95,74 %
07.12.2021 08:04 2,4 C 1,7 C 1,1 C 98 % 1010,2 hPa 0,0 l/m 0 min 0 min 0 W/m 12,9 km/h (3 Bft) 97,87 %
07.12.2021 08:06 2,4 C 1,7 C 1,1 C 98 % 1010,2 hPa 0,0 l/m 0 min 0 min 0 W/m 16,1 km/h (3 Bft) 97,87 %
07.12.2021 08:08 2,4 C 1,7 C 1,1 C 98 % 1010,2 hPa 0,0 l/m 0 min 0 min 0 W/m 9,7 km/h (2 Bft) 95,74 %
07.12.2021 08:10 2,4 C 1,7 C 1,1 C 98 % 1010,2 hPa 0,0 l/m 0 min 0 min 0 W/m 6,4 km/h (2 Bft) 97,83 %
07.12.2021 08:12 2,3 C 1,7 C 1,1 C 98 % 1010,3 hPa 0,0 l/m 0 min 0 min 0 W/m 6,4 km/h (2 Bft) 53,49 %
07.12.2021 08:14 2,3 C 1,7 C 1,1 C 98 % 1010,3 hPa 0,0 l/m 0 min 0 min 0 W/m 6,4 km/h (2 Bft) 93,62 %
07.12.2021 08:16 2,3 C 1,7 C 1,1 C 98 % 1010,3 hPa 0,0 l/m 0 min 0 min 0 W/m 12,9 km/h (3 Bft) 93,62 %
07.12.2021 08:18 2,3 C 1,7 C 1,1 C 98 % 1010,3 hPa 0,0 l/m 0 min 0 min 0 W/m 16,1 km/h (3 Bft) 95,74 %
07.12.2021 08:20 2,3 C 1,7 C 1,1 C 98 % 1010,4 hPa 0,0 l/m 0 min 0 min 0 W/m 16,1 km/h (3 Bft) 95,74 %
07.12.2021 08:22 2,3 C 1,7 C 1,1 C 98 % 1010,4 hPa 0,0 l/m 0 min 0 min 0 W/m 16,1 km/h (3 Bft) 95,65 %
07.12.2021 08:24 2,2 C 1,7 C 1,1 C 98 % 1010,4 hPa 0,0 l/m 0 min 0 min 0 W/m 16,1 km/h (3 Bft) 95,74 %
07.12.2021 08:26 2,2 C 1,7 C 1,1 C 98 % 1010,4 hPa 0,0 l/m 0 min 0 min 2 W/m 25,7 km/h (4 Bft) 93,62 %
07.12.2021 08:28 2,2 C 1,7 C 1,1 C 98 % 1010,4 hPa 0,0 l/m 0 min 0 min 5 W/m 12,9 km/h (3 Bft) 97,87 %
07.12.2021 08:30 2,2 C 1,7 C 1,1 C 98 % 1010,5 hPa 0,0 l/m 0 min 0 min 5 W/m 9,7 km/h (2 Bft) 97,87 %
07.12.2021 08:32 2,2 C 1,7 C 1,1 C 98 % 1010,6 hPa 0,0 l/m 0 min 0 min 7 W/m 9,7 km/h (2 Bft) 97,87 %
07.12.2021 08:34 2,2 C 1,7 C 1,1 C 98 % 1010,6 hPa 0,0 l/m 0 min 0 min 7 W/m 9,7 km/h (2 Bft) 95,65 %
07.12.2021 08:36 2,2 C 1,7 C 1,1 C 98 % 1010,6 hPa 0,0 l/m 0 min 0 min 7 W/m 16,1 km/h (3 Bft) 97,87 %
07.12.2021 08:38 2,2 C 1,7 C 1,1 C 98 % 1010,5 hPa 0,0 l/m 0 min 0 min 9 W/m 9,7 km/h (2 Bft) 97,87 %
07.12.2021 08:40 2,2 C 1,7 C 1,1 C 98 % 1010,5 hPa 0,0 l/m 0 min 0 min 10 W/m 12,9 km/h (3 Bft) 97,87 %
07.12.2021 08:42 2,2 C 1,7 C 1,1 C 98 % 1010,5 hPa 0,0 l/m 0 min 0 min 11 W/m 16,1 km/h (3 Bft) 97,87 %
07.12.2021 08:44 2,2 C 1,7 C 1,1 C 98 % 1010,6 hPa 0,0 l/m 0 min 0 min 11 W/m 12,9 km/h (3 Bft) 97,87 %
07.12.2021 08:46 2,1 C 1,7 C 1,1 C 98 % 1010,6 hPa 0,0 l/m 0 min 0 min 12 W/m 9,7 km/h (2 Bft) 93,48 %
07.12.2021 08:48 2,1 C 1,7 C 1,1 C 98 % 1010,6 hPa 0,0 l/m 0 min 0 min 12 W/m 6,4 km/h (2 Bft) 97,87 %
07.12.2021 08:50 2,1 C 1,7 C 1,1 C 98 % 1010,6 hPa 0,0 l/m 0 min 0 min 14 W/m 12,9 km/h (3 Bft) 95,74 %
07.12.2021 08:52 2,1 C 1,7 C 1,1 C 98 % 1010,6 hPa 0,0 l/m 0 min 0 min 15 W/m 9,7 km/h (2 Bft) 95,74 %
07.12.2021 08:54 2,1 C 1,7 C 1,1 C 98 % 1010,6 hPa 0,0 l/m 0 min 0 min 16 W/m 9,7 km/h (2 Bft) 95,74 %
07.12.2021 08:56 2,1 C 1,7 C 1,1 C 98 % 1010,7 hPa 0,0 l/m 0 min 0 min 17 W/m 12,9 km/h (3 Bft) 93,48 %
07.12.2021 08:58 2,1 C 1,7 C 1,1 C 98 % 1010,6 hPa 0,0 l/m 0 min 0 min 18 W/m 12,9 km/h (3 Bft) 91,49 %
07.12.2021 09:00 2,1 C 1,7 C 1,1 C 98 % 1010,6 hPa 0,0 l/m 0 min 0 min 18 W/m 19,3 km/h (3 Bft) 95,74 %
07.12.2021 09:02 2,1 C 1,7 C 1,1 C 98 % 1010,5 hPa 0,0 l/m 0 min 0 min 19 W/m 12,9 km/h (3 Bft) 95,74 %
07.12.2021 09:04 2,1 C 1,7 C 1,1 C 98 % 1010,5 hPa 0,0 l/m 0 min 0 min 19 W/m 12,9 km/h (3 Bft) 97,87 %
07.12.2021 09:06 2,1 C 1,7 C 1,1 C 98 % 1010,5 hPa 0,0 l/m 0 min 0 min 20 W/m 12,9 km/h (3 Bft) 97,87 %
07.12.2021 09:08 2,1 C 1,7 C 1,1 C 98 % 1010,6 hPa 0,0 l/m 0 min 0 min 21 W/m 19,3 km/h (3 Bft) 97,83 %
07.12.2021 09:10 2,1 C 1,7 C 1,1 C 98 % 1010,6 hPa 0,0 l/m 0 min 0 min 21 W/m 9,7 km/h (2 Bft) 97,87 %
07.12.2021 09:12 2,1 C 1,7 C 1,1 C 98 % 1010,6 hPa 0,0 l/m 0 min 0 min 22 W/m 6,4 km/h (2 Bft) 95,74 %
07.12.2021 09:14 2,1 C 1,7 C 1,1 C 98 % 1010,6 hPa 0,0 l/m 0 min 0 min 23 W/m 6,4 km/h (2 Bft) 97,87 %
07.12.2021 09:16 2,1 C 1,7 C 1,1 C 98 % 1010,6 hPa 0,0 l/m 0 min 0 min 24 W/m 19,3 km/h (3 Bft) 97,87 %
07.12.2021 09:18 2,1 C 1,7 C 1,1 C 98 % 1010,6 hPa 0,0 l/m 0 min 0 min 25 W/m 12,9 km/h (3 Bft) 97,87 %
07.12.2021 09:20 2,1 C 1,7 C 1,1 C 98 % 1010,6 hPa 0,0 l/m 0 min 0 min 25 W/m 19,3 km/h (3 Bft) 97,83 %
07.12.2021 09:22 2,1 C 1,7 C 1,1 C 98 % 1010,6 hPa 0,0 l/m 0 min 0 min 26 W/m 12,9 km/h (3 Bft) 97,87 %
07.12.2021 09:24 2,1 C 1,7 C 1,1 C 98 % 1010,5 hPa 0,0 l/m 0 min 0 min 26 W/m 12,9 km/h (3 Bft) 100,00 %
07.12.2021 09:26 2,2 C 1,7 C 1,1 C 98 % 1010,5 hPa 0,0 l/m 0 min 0 min 27 W/m 16,1 km/h (3 Bft) 100,00 %
07.12.2021 09:28 2,2 C 2,2 C 1,1 C 98 % 1010,5 hPa 0,0 l/m 0 min 0 min 28 W/m 9,7 km/h (2 Bft) 97,87 %
07.12.2021 09:30 2,2 C 2,2 C 1,1 C 98 % 1010,4 hPa 0,0 l/m 0 min 0 min 30 W/m 16,1 km/h (3 Bft) 97,87 %
07.12.2021 09:32 2,2 C 2,2 C 1,1 C 98 % 1010,4 hPa 0,0 l/m 0 min 0 min 30 W/m 12,9 km/h (3 Bft) 97,83 %
07.12.2021 09:34 2,2 C 2,2 C 1,1 C 98 % 1010,4 hPa 0,0 l/m 0 min 0 min 32 W/m 9,7 km/h (2 Bft) 100,00 %
07.12.2021 09:36 2,2 C 2,2 C 1,1 C 98 % 1010,4 hPa 0,0 l/m 0 min 0 min 33 W/m 12,9 km/h (3 Bft) 100,00 %
07.12.2021 09:38 2,2 C 2,2 C 1,1 C 97 % 1010,5 hPa 0,0 l/m 0 min 0 min 33 W/m 6,4 km/h (2 Bft) 95,74 %
07.12.2021 09:40 2,2 C 2,2 C 1,1 C 98 % 1010,5 hPa 0,0 l/m 0 min 0 min 34 W/m 16,1 km/h (3 Bft) 100,00 %
07.12.2021 09:42 2,3 C 2,2 C 1,1 C 98 % 1010,6 hPa 0,0 l/m 0 min 0 min 35 W/m 16,1 km/h (3 Bft) 100,00 %
07.12.2021 09:44 2,3 C 2,2 C 1,1 C 98 % 1010,6 hPa 0,0 l/m 0 min 0 min 35 W/m 6,4 km/h (2 Bft) 100,00 %
07.12.2021 09:46 2,3 C 2,2 C 1,1 C 98 % 1010,6 hPa 0,0 l/m 0 min 0 min 36 W/m 16,1 km/h (3 Bft) 100,00 %
07.12.2021 09:48 2,3 C 2,2 C 1,7 C 98 % 1010,6 hPa 0,0 l/m 0 min 0 min 37 W/m 16,1 km/h (3 Bft) 100,00 %
07.12.2021 09:50 2,3 C 2,2 C 1,7 C 98 % 1010,7 hPa 0,0 l/m 0 min 0 min 38 W/m 9,7 km/h (2 Bft) 100,00 %
07.12.2021 09:52 2,3 C 2,2 C 1,7 C 98 % 1010,7 hPa 0,0 l/m 0 min 0 min 39 W/m 9,7 km/h (2 Bft) 100,00 %
07.12.2021 09:54 2,4 C 2,2 C 1,7 C 98 % 1010,7 hPa 0,0 l/m 0 min 0 min 40 W/m 12,9 km/h (3 Bft) 100,00 %
07.12.2021 09:56 2,4 C 2,2 C 1,7 C 98 % 1010,7 hPa 0,0 l/m 0 min 0 min 42 W/m 16,1 km/h (3 Bft) 97,87 %
07.12.2021 09:58 2,4 C 2,2 C 1,7 C 98 % 1010,7 hPa 0,0 l/m 0 min 0 min 44 W/m 12,9 km/h (3 Bft) 97,87 %
07.12.2021 10:00 2,5 C 2,2 C 1,7 C 97 % 1010,6 hPa 0,0 l/m 0 min 0 min 52 W/m 12,9 km/h (3 Bft) 100,00 %
07.12.2021 10:02 2,5 C 2,2 C 1,7 C 97 % 1010,7 hPa 0,0 l/m 0 min 0 min 78 W/m 12,9 km/h (3 Bft) 97,87 %
07.12.2021 10:04 2,5 C 2,8 C 1,7 C 97 % 1010,8 hPa 0,0 l/m 2 min 0 min 112 W/m 12,9 km/h (3 Bft) 97,87 %
07.12.2021 10:06 2,6 C 2,8 C 1,7 C 98 % 1010,7 hPa 0,0 l/m 2 min 0 min 140 W/m 16,1 km/h (3 Bft) 100,00 %
07.12.2021 10:08 2,6 C 2,8 C 1,7 C 98 % 1010,8 hPa 0,0 l/m 2 min 0 min 151 W/m 22,5 km/h (4 Bft) 97,96 %
07.12.2021 10:10 2,6 C 2,8 C 1,7 C 98 % 1010,8 hPa 0,0 l/m 2 min 0 min 154 W/m 12,9 km/h (3 Bft) 97,87 %
07.12.2021 10:12 2,7 C 2,8 C 1,7 C 98 % 1010,8 hPa 0,0 l/m 2 min 0 min 159 W/m 16,1 km/h (3 Bft) 97,87 %
07.12.2021 10:14 2,7 C 2,8 C 1,7 C 98 % 1010,8 hPa 0,0 l/m 2 min 0 min 163 W/m 22,5 km/h (4 Bft) 97,87 %
07.12.2021 10:16 2,7 C 2,8 C 1,7 C 97 % 1010,8 hPa 0,0 l/m 2 min 0 min 167 W/m 19,3 km/h (3 Bft) 95,74 %
07.12.2021 10:18 2,8 C 2,8 C 1,7 C 97 % 1011,0 hPa 0,0 l/m 2 min 0 min 171 W/m 22,5 km/h (4 Bft) 97,83 %
07.12.2021 10:20 2,8 C 2,8 C 1,7 C 97 % 1010,9 hPa 0,0 l/m 2 min 0 min 175 W/m 22,5 km/h (4 Bft) 97,87 %
07.12.2021 10:22 2,8 C 2,8 C 1,7 C 98 % 1010,9 hPa 0,0 l/m 2 min 0 min 183 W/m 22,5 km/h (4 Bft) 93,62 %
07.12.2021 10:24 2,9 C 2,8 C 1,7 C 97 % 1010,9 hPa 0,0 l/m 2 min 0 min 192 W/m 19,3 km/h (3 Bft) 97,87 %
07.12.2021 10:26 2,9 C 3,3 C 1,7 C 97 % 1010,9 hPa 0,0 l/m 2 min 0 min 200 W/m 16,1 km/h (3 Bft) 95,74 %
07.12.2021 10:28 3,0 C 3,3 C 1,7 C 97 % 1010,9 hPa 0,0 l/m 2 min 0 min 210 W/m 22,5 km/h (4 Bft) 97,87 %
07.12.2021 10:30 3,0 C 3,3 C 2,2 C 97 % 1010,9 hPa 0,0 l/m 2 min 0 min 216 W/m 35,4 km/h (5 Bft) 97,83 %
07.12.2021 10:32 3,1 C 3,3 C 2,2 C 97 % 1010,9 hPa 0,0 l/m 2 min 0 min 217 W/m 16,1 km/h (3 Bft) 97,87 %
07.12.2021 10:34 3,1 C 3,3 C 2,2 C 97 % 1010,9 hPa 0,0 l/m 2 min 0 min 179 W/m 16,1 km/h (3 Bft) 97,87 %
07.12.2021 10:36 3,1 C 3,3 C 2,2 C 97 % 1010,9 hPa 0,0 l/m 0 min 0 min 104 W/m 19,3 km/h (3 Bft) 97,87 %
07.12.2021 10:38 3,2 C 3,3 C 2,2 C 97 % 1010,9 hPa 0,0 l/m 2 min 0 min 136 W/m 19,3 km/h (3 Bft) 93,62 %
07.12.2021 10:40 3,2 C 3,3 C 2,2 C 97 % 1011,0 hPa 0,0 l/m 2 min 0 min 130 W/m 12,9 km/h (3 Bft) 97,87 %
07.12.2021 10:42 3,2 C 3,3 C 2,2 C 97 % 1010,9 hPa 0,0 l/m 0 min 0 min 94 W/m 16,1 km/h (3 Bft) 95,65 %
07.12.2021 10:44 3,2 C 3,3 C 2,2 C 97 % 1011,0 hPa 0,0 l/m 2 min 0 min 193 W/m 19,3 km/h (3 Bft) 97,87 %
07.12.2021 10:46 3,2 C 3,3 C 2,2 C 97 % 1011,0 hPa 0,0 l/m 2 min 0 min 193 W/m 19,3 km/h (3 Bft) 97,87 %
07.12.2021 10:48 3,3 C 3,3 C 2,2 C 97 % 1011,0 hPa 0,0 l/m 2 min 0 min 144 W/m 19,3 km/h (3 Bft) 95,74 %
07.12.2021 10:50 3,3 C 3,3 C 2,2 C 97 % 1011,0 hPa 0,0 l/m 2 min 0 min 188 W/m 12,9 km/h (3 Bft) 57,45 %
07.12.2021 10:52 3,3 C 3,3 C 2,2 C 97 % 1011,0 hPa 0,0 l/m 2 min 0 min 178 W/m 12,9 km/h (3 Bft) 95,65 %
07.12.2021 10:54 3,4 C 3,3 C 2,2 C 97 % 1011,0 hPa 0,0 l/m 2 min 0 min 174 W/m 22,5 km/h (4 Bft) 95,74 %
07.12.2021 10:56 3,4 C 3,3 C 2,2 C 97 % 1011,0 hPa 0,0 l/m 2 min 0 min 224 W/m 9,7 km/h (2 Bft) 95,74 %
07.12.2021 10:58 3,4 C 3,3 C 2,2 C 96 % 1011,0 hPa 0,0 l/m 2 min 0 min 227 W/m 12,9 km/h (3 Bft) 93,62 %
07.12.2021 11:00 3,5 C 3,3 C 2,2 C 96 % 1010,9 hPa 0,0 l/m 2 min 0 min 214 W/m 12,9 km/h (3 Bft) 95,74 %
07.12.2021 11:02 3,6 C 3,9 C 2,2 C 96 % 1010,9 hPa 0,0 l/m 2 min 0 min 229 W/m 19,3 km/h (3 Bft) 93,62 %
07.12.2021 11:04 3,6 C 3,9 C 2,2 C 96 % 1010,8 hPa 0,0 l/m 2 min 0 min 232 W/m 19,3 km/h (3 Bft) 95,65 %
07.12.2021 11:06 3,7 C 3,9 C 2,2 C 96 % 1010,8 hPa 0,0 l/m 2 min 0 min 233 W/m 16,1 km/h (3 Bft) 95,74 %
07.12.2021 11:08 3,7 C 3,9 C 2,2 C 96 % 1010,9 hPa 0,0 l/m 2 min 0 min 224 W/m 16,1 km/h (3 Bft) 95,35 %
07.12.2021 11:10 3,8 C 3,9 C 2,2 C 96 % 1010,8 hPa 0,0 l/m 2 min 0 min 214 W/m 22,5 km/h (4 Bft) 94,00 %
07.12.2021 11:12 3,8 C 3,9 C 2,2 C 96 % 1010,8 hPa 0,0 l/m 2 min 0 min 176 W/m 16,1 km/h (3 Bft) 95,74 %
07.12.2021 11:14 3,9 C 3,9 C 2,2 C 96 % 1010,8 hPa 0,0 l/m 2 min 0 min 167 W/m 22,5 km/h (4 Bft) 95,65 %
07.12.2021 11:16 3,9 C 3,9 C 2,2 C 95 % 1010,8 hPa 0,0 l/m 2 min 0 min 182 W/m 22,5 km/h (4 Bft) 93,62 %
07.12.2021 11:18 4,0 C 3,9 C 2,2 C 96 % 1010,8 hPa 0,0 l/m 2 min 0 min 148 W/m 19,3 km/h (3 Bft) 97,87 %
07.12.2021 11:20 4,1 C 3,9 C 2,2 C 95 % 1010,8 hPa 0,0 l/m 0 min 0 min 90 W/m 16,1 km/h (3 Bft) 95,74 %
07.12.2021 11:22 4,1 C 3,9 C 2,2 C 95 % 1010,7 hPa 0,0 l/m 0 min 0 min 114 W/m 19,3 km/h (3 Bft) 95,74 %
07.12.2021 11:24 4,1 C 3,9 C 2,2 C 95 % 1010,7 hPa 0,0 l/m 0 min 0 min 109 W/m 12,9 km/h (3 Bft) 95,74 %
07.12.2021 11:26 4,2 C 3,9 C 2,2 C 95 % 1010,6 hPa 0,0 l/m 0 min 0 min 117 W/m 19,3 km/h (3 Bft) 93,48 %
07.12.2021 11:28 4,2 C 4,4 C 2,8 C 95 % 1010,6 hPa 0,0 l/m 0 min 0 min 87 W/m 12,9 km/h (3 Bft) 95,74 %
07.12.2021 11:30 4,3 C 4,4 C 2,8 C 94 % 1010,6 hPa 0,0 l/m 0 min 0 min 68 W/m 16,1 km/h (3 Bft) 97,87 %
07.12.2021 11:32 4,3 C 4,4 C 2,8 C 94 % 1010,6 hPa 0,0 l/m 0 min 0 min 62 W/m 16,1 km/h (3 Bft) 95,74 %
07.12.2021 11:34 4,3 C 4,4 C 2,8 C 94 % 1010,6 hPa 0,0 l/m 0 min 0 min 88 W/m 9,7 km/h (2 Bft) 97,87 %
07.12.2021 11:36 4,4 C 4,4 C 2,8 C 94 % 1010,6 hPa 0,0 l/m 0 min 0 min 118 W/m 12,9 km/h (3 Bft) 97,87 %
07.12.2021 11:38 4,4 C 4,4 C 2,8 C 94 % 1010,6 hPa 0,0 l/m 0 min 0 min 148 W/m 19,3 km/h (3 Bft) 95,83 %
07.12.2021 11:40 4,4 C 4,4 C 2,8 C 94 % 1010,5 hPa 0,0 l/m 0 min 0 min 77 W/m 12,9 km/h (3 Bft) 97,83 %
07.12.2021 11:42 4,5 C 4,4 C 2,8 C 94 % 1010,5 hPa 0,0 l/m 0 min 0 min 58 W/m 22,5 km/h (4 Bft) 97,87 %
07.12.2021 11:44 4,5 C 4,4 C 2,8 C 93 % 1010,6 hPa 0,0 l/m 0 min 0 min 52 W/m 12,9 km/h (3 Bft) 95,74 %
07.12.2021 11:46 4,6 C 4,4 C 2,8 C 93 % 1010,5 hPa 0,0 l/m 0 min 0 min 49 W/m 22,5 km/h (4 Bft) 97,87 %
07.12.2021 11:48 4,6 C 4,4 C 2,8 C 93 % 1010,5 hPa 0,0 l/m 0 min 0 min 69 W/m 22,5 km/h (4 Bft) 97,87 %
07.12.2021 11:50 4,6 C 4,4 C 2,8 C 93 % 1010,5 hPa 0,0 l/m 2 min 0 min 155 W/m 19,3 km/h (3 Bft) 100,00 %
07.12.2021 11:52 4,6 C 5,0 C 2,8 C 93 % 1010,5 hPa 0,0 l/m 0 min 0 min 121 W/m 16,1 km/h (3 Bft) 100,00 %
07.12.2021 11:54 4,6 C 5,0 C 2,8 C 93 % 1010,5 hPa 0,0 l/m 0 min 0 min 99 W/m 19,3 km/h (3 Bft) 100,00 %
07.12.2021 11:56 4,7 C 5,0 C 2,8 C 92 % 1010,6 hPa 0,0 l/m 0 min 0 min 97 W/m 25,7 km/h (4 Bft) 100,00 %
07.12.2021 11:58 4,7 C 5,0 C 2,8 C 92 % 1010,5 hPa 0,0 l/m 0 min 0 min 108 W/m 19,3 km/h (3 Bft) 97,87 %
07.12.2021 12:00 4,7 C 5,6 C 2,8 C 92 % 1010,4 hPa 0,0 l/m 2 min 0 min 195 W/m 22,5 km/h (4 Bft) 100,00 %
07.12.2021 12:02 4,7 C 5,6 C 2,8 C 92 % 1010,4 hPa 0,0 l/m 2 min 0 min 169 W/m 16,1 km/h (3 Bft) 100,00 %
07.12.2021 12:04 4,8 C 6,1 C 2,8 C 92 % 1010,4 hPa 0,0 l/m 0 min 0 min 101 W/m 29,0 km/h (5 Bft) 100,00 %
07.12.2021 12:07 4,8 C 6,7 C 2,8 C 91 % 1010,3 hPa 0,0 l/m 0 min 0 min 114 W/m 16,1 km/h (3 Bft) 100,00 %
07.12.2021 12:08 4,8 C 6,7 C 2,8 C 91 % 1010,3 hPa 0,0 l/m 0 min 0 min 73 W/m 25,7 km/h (4 Bft) 100,00 %
07.12.2021 12:10 4,8 C 6,7 C 2,8 C 91 % 1010,2 hPa 0,0 l/m 0 min 0 min 89 W/m 12,9 km/h (3 Bft) 97,87 %
07.12.2021 12:12 4,9 C 6,7 C 2,8 C 91 % 1010,2 hPa 0,0 l/m 0 min 0 min 59 W/m 19,3 km/h (3 Bft) 100,00 %
07.12.2021 12:14 4,9 C 6,1 C 2,8 C 91 % 1010,2 hPa 0,0 l/m 0 min 0 min 83 W/m 25,7 km/h (4 Bft) 100,00 %
07.12.2021 12:16 5,0 C 6,7 C 2,8 C 91 % 1010,1 hPa 0,0 l/m 0 min 0 min 120 W/m 16,1 km/h (3 Bft) 97,87 %
07.12.2021 12:18 5,0 C 6,1 C 2,8 C 91 % 1010,1 hPa 0,0 l/m 0 min 0 min 112 W/m 32,2 km/h (5 Bft) 100,00 %
07.12.2021 12:20 5,1 C 6,1 C 2,8 C 91 % 1010,1 hPa 0,0 l/m 0 min 0 min 124 W/m 16,1 km/h (3 Bft) 100,00 %
07.12.2021 12:22 5,1 C 6,7 C 2,8 C 90 % 1009,9 hPa 0,0 l/m 0 min 0 min 139 W/m 19,3 km/h (3 Bft) 97,87 %
07.12.2021 12:24 5,1 C 6,7 C 2,8 C 90 % 1009,9 hPa 0,0 l/m 0 min 0 min 124 W/m 22,5 km/h (4 Bft) 100,00 %
07.12.2021 12:26 5,1 C 6,7 C 2,8 C 90 % 1009,8 hPa 0,0 l/m 2 min 0 min 171 W/m 22,5 km/h (4 Bft) 95,65 %
07.12.2021 12:28 5,2 C 7,2 C 2,8 C 90 % 1009,8 hPa 0,0 l/m 2 min 0 min 175 W/m 22,5 km/h (4 Bft) 100,00 %
07.12.2021 12:30 5,2 C 8,3 C 2,8 C 90 % 1009,6 hPa 0,0 l/m 2 min 0 min 168 W/m 19,3 km/h (3 Bft) 100,00 %
07.12.2021 12:32 5,2 C 8,9 C 2,8 C 90 % 1009,6 hPa 0,0 l/m 2 min 0 min 194 W/m 25,7 km/h (4 Bft) 100,00 %
07.12.2021 12:34 5,3 C 9,4 C 3,3 C 89 % 1009,6 hPa 0,0 l/m 2 min 0 min 247 W/m 19,3 km/h (3 Bft) 97,87 %
07.12.2021 12:36 5,3 C 10,0 C 3,3 C 89 % 1009,6 hPa 0,0 l/m 2 min 0 min 276 W/m 25,7 km/h (4 Bft) 100,00 %
07.12.2021 12:38 5,3 C 10,6 C 3,3 C 89 % 1009,6 hPa 0,0 l/m 2 min 0 min 279 W/m 22,5 km/h (4 Bft) 100,00 %
07.12.2021 12:40 5,4 C 11,1 C 3,3 C 89 % 1009,6 hPa 0,0 l/m 2 min 0 min 282 W/m 16,1 km/h (3 Bft) 100,00 %
07.12.2021 12:42 5,4 C 12,2 C 3,3 C 89 % 1009,5 hPa 0,0 l/m 2 min 0 min 285 W/m 19,3 km/h (3 Bft) 97,87 %
07.12.2021 12:44 5,5 C 13,3 C 3,3 C 89 % 1009,6 hPa 0,0 l/m 2 min 0 min 285 W/m 16,1 km/h (3 Bft) 100,00 %
07.12.2021 12:46 5,6 C 13,9 C 3,3 C 89 % 1009,5 hPa 0,0 l/m 2 min 0 min 287 W/m 12,9 km/h (3 Bft) 97,87 %
07.12.2021 12:48 5,7 C 14,4 C 3,3 C 89 % 1009,5 hPa 0,0 l/m 2 min 0 min 288 W/m 16,1 km/h (3 Bft) 97,87 %
07.12.2021 12:50 5,8 C 14,4 C 3,3 C 88 % 1009,5 hPa 0,0 l/m 2 min 0 min 287 W/m 16,1 km/h (3 Bft) 100,00 %
07.12.2021 12:52 5,8 C 13,9 C 3,3 C 88 % 1009,6 hPa 0,0 l/m 2 min 0 min 286 W/m 16,1 km/h (3 Bft) 100,00 %
07.12.2021 12:54 5,8 C 13,9 C 3,3 C 87 % 1009,6 hPa 0,0 l/m 2 min 0 min 283 W/m 16,1 km/h (3 Bft) 100,00 %
07.12.2021 12:56 5,8 C 13,3 C 3,3 C 87 % 1009,7 hPa 0,0 l/m 2 min 0 min 283 W/m 19,3 km/h (3 Bft) 97,87 %
07.12.2021 12:58 5,9 C 12,8 C 3,3 C 87 % 1009,6 hPa 0,0 l/m 2 min 0 min 283 W/m 25,7 km/h (4 Bft) 100,00 %
07.12.2021 13:00 5,9 C 13,3 C 3,3 C 87 % 1009,6 hPa 0,0 l/m 2 min 0 min 282 W/m 19,3 km/h (3 Bft) 100,00 %
07.12.2021 13:02 6,0 C 13,3 C 3,3 C 86 % 1009,6 hPa 0,0 l/m 2 min 0 min 281 W/m 19,3 km/h (3 Bft) 100,00 %
07.12.2021 13:04 6,1 C 13,9 C 3,3 C 86 % 1009,7 hPa 0,0 l/m 2 min 0 min 282 W/m 12,9 km/h (3 Bft) 100,00 %
07.12.2021 13:06 6,1 C 13,9 C 3,3 C 86 % 1009,6 hPa 0,0 l/m 2 min 0 min 279 W/m 16,1 km/h (3 Bft) 100,00 %
07.12.2021 13:08 6,2 C 13,9 C 3,9 C 86 % 1009,6 hPa 0,0 l/m 2 min 0 min 279 W/m 12,9 km/h (3 Bft) 100,00 %
07.12.2021 13:10 6,2 C 13,9 C 3,9 C 86 % 1009,5 hPa 0,0 l/m 2 min 0 min 277 W/m 29,0 km/h (5 Bft) 100,00 %
07.12.2021 13:12 6,2 C 13,3 C 3,9 C 85 % 1009,5 hPa 0,0 l/m 2 min 0 min 276 W/m 22,5 km/h (4 Bft) 97,87 %
07.12.2021 13:14 6,2 C 12,8 C 3,9 C 85 % 1009,5 hPa 0,0 l/m 2 min 0 min 266 W/m 29,0 km/h (5 Bft) 100,00 %
07.12.2021 13:16 6,2 C 12,8 C 3,9 C 84 % 1009,5 hPa 0,0 l/m 2 min 0 min 257 W/m 22,5 km/h (4 Bft) 100,00 %
07.12.2021 13:18 6,2 C 12,2 C 3,9 C 84 % 1009,4 hPa 0,0 l/m 2 min 0 min 256 W/m 19,3 km/h (3 Bft) 97,87 %
07.12.2021 13:20 6,1 C 11,7 C 3,9 C 84 % 1009,4 hPa 0,0 l/m 2 min 0 min 254 W/m 16,1 km/h (3 Bft) 97,87 %
07.12.2021 13:22 6,2 C 11,7 C 3,9 C 84 % 1009,3 hPa 0,0 l/m 2 min 0 min 250 W/m 16,1 km/h (3 Bft) 93,62 %
07.12.2021 13:24 6,2 C 11,7 C 3,9 C 84 % 1009,3 hPa 0,0 l/m 2 min 0 min 248 W/m 12,9 km/h (3 Bft) 95,74 %
07.12.2021 13:26 6,2 C 11,7 C 3,9 C 84 % 1009,3 hPa 0,0 l/m 2 min 0 min 240 W/m 12,9 km/h (3 Bft) 93,48 %
07.12.2021 13:28 6,2 C 11,7 C 3,9 C 84 % 1009,2 hPa 0,0 l/m 2 min 0 min 237 W/m 16,1 km/h (3 Bft) 97,87 %
07.12.2021 13:30 6,3 C 11,1 C 3,9 C 84 % 1009,3 hPa 0,0 l/m 2 min 0 min 230 W/m 12,9 km/h (3 Bft) 91,49 %
07.12.2021 13:32 6,3 C 10,6 C 3,9 C 84 % 1009,2 hPa 0,0 l/m 2 min 0 min 235 W/m 19,3 km/h (3 Bft) 97,87 %
07.12.2021 13:34 6,3 C 9,4 C 3,9 C 84 % 1009,2 hPa 0,0 l/m 2 min 0 min 228 W/m 22,5 km/h (4 Bft) 95,74 %
07.12.2021 13:36 6,3 C 8,9 C 3,9 C 83 % 1009,2 hPa 0,0 l/m 2 min 0 min 218 W/m 22,5 km/h (4 Bft) 95,74 %
07.12.2021 13:38 6,3 C 8,3 C 3,9 C 83 % 1009,2 hPa 0,0 l/m 2 min 0 min 228 W/m 16,1 km/h (3 Bft) 95,65 %
07.12.2021 13:40 6,3 C 8,3 C 3,9 C 83 % 1009,2 hPa 0,0 l/m 2 min 0 min 215 W/m 9,7 km/h (2 Bft) 95,74 %
07.12.2021 13:42 6,3 C 8,9 C 3,9 C 83 % 1009,2 hPa 0,0 l/m 2 min 0 min 244 W/m 19,3 km/h (3 Bft) 95,74 %
07.12.2021 13:44 6,3 C 8,9 C 3,9 C 84 % 1009,1 hPa 0,0 l/m 2 min 0 min 238 W/m 16,1 km/h (3 Bft) 97,87 %
07.12.2021 13:46 6,3 C 8,3 C 3,9 C 84 % 1009,0 hPa 0,0 l/m 2 min 0 min 233 W/m 22,5 km/h (4 Bft) 95,74 %
07.12.2021 13:48 6,3 C 8,9 C 3,9 C 84 % 1009,0 hPa 0,0 l/m 2 min 0 min 223 W/m 16,1 km/h (3 Bft) 93,62 %
07.12.2021 13:50 6,3 C 8,9 C 3,9 C 84 % 1009,0 hPa 0,0 l/m 2 min 0 min 219 W/m 16,1 km/h (3 Bft) 95,65 %
07.12.2021 13:52 6,3 C 8,3 C 3,9 C 84 % 1009,0 hPa 0,0 l/m 2 min 0 min 211 W/m 19,3 km/h (3 Bft) 93,62 %
07.12.2021 13:54 6,3 C 7,8 C 3,9 C 83 % 1009,0 hPa 0,0 l/m 2 min 0 min 206 W/m 12,9 km/h (3 Bft) 93,62 %
07.12.2021 13:56 6,3 C 7,8 C 3,9 C 83 % 1008,9 hPa 0,0 l/m 2 min 0 min 203 W/m 16,1 km/h (3 Bft) 95,74 %
07.12.2021 13:58 6,3 C 7,2 C 3,9 C 83 % 1009,0 hPa 0,0 l/m 2 min 0 min 181 W/m 12,9 km/h (3 Bft) 95,74 %
07.12.2021 14:00 6,3 C 7,2 C 3,9 C 83 % 1008,9 hPa 0,0 l/m 2 min 0 min 187 W/m 12,9 km/h (3 Bft) 93,62 %
07.12.2021 14:02 6,3 C 6,7 C 3,9 C 83 % 1008,9 hPa 0,0 l/m 2 min 0 min 188 W/m 22,5 km/h (4 Bft) 97,83 %
07.12.2021 14:04 6,3 C 6,7 C 3,9 C 82 % 1008,9 hPa 0,0 l/m 2 min 0 min 182 W/m 19,3 km/h (3 Bft) 97,87 %
07.12.2021 14:06 6,2 C 6,7 C 3,9 C 82 % 1008,9 hPa 0,0 l/m 2 min 0 min 178 W/m 22,5 km/h (4 Bft) 97,87 %
07.12.2021 14:08 6,2 C 6,7 C 3,9 C 82 % 1008,9 hPa 0,0 l/m 2 min 0 min 170 W/m 19,3 km/h (3 Bft) 95,74 %
07.12.2021 14:10 6,2 C 6,7 C 3,9 C 82 % 1008,9 hPa 0,0 l/m 2 min 0 min 170 W/m 19,3 km/h (3 Bft) 97,87 %
07.12.2021 14:12 6,2 C 6,7 C 3,9 C 82 % 1008,8 hPa 0,0 l/m 2 min 0 min 168 W/m 12,9 km/h (3 Bft) 97,87 %
07.12.2021 14:14 6,2 C 6,1 C 3,9 C 82 % 1008,8 hPa 0,0 l/m 2 min 0 min 163 W/m 25,7 km/h (4 Bft) 97,83 %
07.12.2021 14:16 6,2 C 6,1 C 3,9 C 81 % 1008,8 hPa 0,0 l/m 2 min 0 min 159 W/m 16,1 km/h (3 Bft) 97,87 %
07.12.2021 14:18 6,1 C 6,7 C 3,9 C 81 % 1008,7 hPa 0,0 l/m 2 min 0 min 156 W/m 16,1 km/h (3 Bft) 97,87 %
07.12.2021 14:20 6,1 C 6,7 C 3,9 C 81 % 1008,7 hPa 0,0 l/m 2 min 0 min 144 W/m 16,1 km/h (3 Bft) 97,87 %
07.12.2021 14:22 6,1 C 6,7 C 3,9 C 81 % 1008,6 hPa 0,0 l/m 2 min 0 min 134 W/m 25,7 km/h (4 Bft) 97,87 %
07.12.2021 14:24 6,1 C 6,7 C 3,9 C 81 % 1008,6 hPa 0,0 l/m 2 min 0 min 132 W/m 19,3 km/h (3 Bft) 97,83 %
07.12.2021 14:26 6,1 C 6,1 C 3,9 C 81 % 1008,5 hPa 0,0 l/m 2 min 0 min 118 W/m 16,1 km/h (3 Bft) 95,74 %
07.12.2021 14:28 6,0 C 6,1 C 3,9 C 81 % 1008,5 hPa 0,0 l/m 2 min 0 min 118 W/m 22,5 km/h (4 Bft) 97,87 %
07.12.2021 14:30 6,0 C 6,7 C 3,9 C 81 % 1008,4 hPa 0,0 l/m 2 min 0 min 116 W/m 19,3 km/h (3 Bft) 97,87 %
07.12.2021 14:32 6,0 C 6,7 C 3,9 C 81 % 1008,3 hPa 0,0 l/m 2 min 0 min 114 W/m 16,1 km/h (3 Bft) 97,87 %
07.12.2021 14:34 6,0 C 6,7 C 3,9 C 81 % 1008,3 hPa 0,0 l/m 2 min 0 min 108 W/m 9,7 km/h (2 Bft) 100,00 %
07.12.2021 14:36 6,0 C 6,7 C 3,9 C 81 % 1008,2 hPa 0,0 l/m 0 min 0 min 102 W/m 22,5 km/h (4 Bft) 97,83 %
07.12.2021 14:38 5,9 C 6,1 C 3,9 C 81 % 1008,2 hPa 0,0 l/m 0 min 0 min 96 W/m 19,3 km/h (3 Bft) 100,00 %
07.12.2021 14:40 5,9 C 6,1 C 3,9 C 81 % 1008,1 hPa 0,0 l/m 0 min 0 min 94 W/m 16,1 km/h (3 Bft) 100,00 %
07.12.2021 14:42 5,8 C 5,6 C 3,9 C 81 % 1008,1 hPa 0,0 l/m 0 min 0 min 92 W/m 16,1 km/h (3 Bft) 100,00 %
07.12.2021 14:44 5,8 C 5,6 C 3,9 C 81 % 1008,1 hPa 0,0 l/m 0 min 0 min 90 W/m 19,3 km/h (3 Bft) 100,00 %
07.12.2021 14:46 5,8 C 5,6 C 3,3 C 82 % 1008,1 hPa 0,0 l/m 0 min 0 min 87 W/m 12,9 km/h (3 Bft) 95,74 %
07.12.2021 14:48 5,7 C 5,6 C 3,9 C 81 % 1008,0 hPa 0,0 l/m 0 min 0 min 86 W/m 19,3 km/h (3 Bft) 97,83 %
07.12.2021 14:50 5,7 C 5,6 C 3,3 C 81 % 1008,0 hPa 0,0 l/m 0 min 0 min 83 W/m 12,9 km/h (3 Bft) 100,00 %
07.12.2021 14:52 5,6 C 5,6 C 3,3 C 81 % 1008,0 hPa 0,0 l/m 0 min 0 min 79 W/m 19,3 km/h (3 Bft) 100,00 %
07.12.2021 14:54 5,6 C 5,0 C 3,3 C 81 % 1008,0 hPa 0,0 l/m 0 min 0 min 77 W/m 22,5 km/h (4 Bft) 97,87 %
07.12.2021 14:56 5,5 C 5,0 C 3,3 C 81 % 1007,9 hPa 0,0 l/m 0 min 0 min 76 W/m 25,7 km/h (4 Bft) 95,74 %
07.12.2021 14:58 5,4 C 5,0 C 3,3 C 81 % 1007,8 hPa 0,0 l/m 0 min 0 min 74 W/m 19,3 km/h (3 Bft) 97,87 %
07.12.2021 15:00 5,4 C 5,0 C 3,3 C 81 % 1007,8 hPa 0,0 l/m 0 min 0 min 70 W/m 19,3 km/h (3 Bft) 97,83 %
07.12.2021 15:02 5,4 C 5,0 C 3,3 C 82 % 1007,8 hPa 0,0 l/m 0 min 0 min 69 W/m 19,3 km/h (3 Bft) 93,62 %
07.12.2021 15:04 5,3 C 5,0 C 3,3 C 82 % 1007,7 hPa 0,0 l/m 0 min 0 min 66 W/m 25,7 km/h (4 Bft) 97,87 %
07.12.2021 15:06 5,3 C 5,0 C 3,3 C 82 % 1007,6 hPa 0,0 l/m 0 min 0 min 64 W/m 19,3 km/h (3 Bft) 95,74 %
07.12.2021 15:08 5,2 C 5,0 C 3,3 C 82 % 1007,6 hPa 0,0 l/m 0 min 0 min 62 W/m 12,9 km/h (3 Bft) 95,74 %
07.12.2021 15:10 5,2 C 5,0 C 3,3 C 82 % 1007,6 hPa 0,0 l/m 0 min 0 min 59 W/m 19,3 km/h (3 Bft) 97,83 %
07.12.2021 15:12 5,1 C 4,4 C 3,3 C 82 % 1007,6 hPa 0,0 l/m 0 min 0 min 57 W/m 19,3 km/h (3 Bft) 97,87 %
07.12.2021 15:14 5,1 C 4,4 C 3,3 C 82 % 1007,6 hPa 0,0 l/m 0 min 0 min 56 W/m 12,9 km/h (3 Bft) 53,33 %
07.12.2021 15:16 5,1 C 4,4 C 3,3 C 83 % 1007,6 hPa 0,0 l/m 0 min 0 min 53 W/m 19,3 km/h (3 Bft) 97,87 %
07.12.2021 15:18 5,0 C 4,4 C 3,3 C 83 % 1007,6 hPa 0,0 l/m 0 min 0 min 50 W/m 16,1 km/h (3 Bft) 97,87 %
07.12.2021 15:20 4,9 C 4,4 C 3,3 C 83 % 1007,5 hPa 0,0 l/m 0 min 0 min 48 W/m 19,3 km/h (3 Bft) 97,87 %
07.12.2021 15:22 4,9 C 4,4 C 3,3 C 83 % 1007,5 hPa 0,0 l/m 0 min 0 min 46 W/m 22,5 km/h (4 Bft) 97,83 %
07.12.2021 15:24 4,9 C 4,4 C 3,3 C 83 % 1007,3 hPa 0,0 l/m 0 min 0 min 44 W/m 19,3 km/h (3 Bft) 97,87 %
07.12.2021 15:26 4,8 C 4,4 C 2,8 C 83 % 1007,3 hPa 0,0 l/m 0 min 0 min 42 W/m 19,3 km/h (3 Bft) 97,87 %
07.12.2021 15:28 4,8 C 4,4 C 2,8 C 83 % 1007,2 hPa 0,0 l/m 0 min 0 min 40 W/m 16,1 km/h (3 Bft) 95,74 %
07.12.2021 15:30 4,7 C 4,4 C 2,8 C 84 % 1007,1 hPa 0,0 l/m 0 min 0 min 39 W/m 19,3 km/h (3 Bft) 97,87 %
07.12.2021 15:32 4,7 C 4,4 C 2,8 C 84 % 1007,1 hPa 0,0 l/m 0 min 0 min 37 W/m 25,7 km/h (4 Bft) 97,87 %
07.12.2021 15:34 4,7 C 3,9 C 2,8 C 84 % 1007,1 hPa 0,0 l/m 0 min 0 min 35 W/m 12,9 km/h (3 Bft) 100,00 %
07.12.2021 15:36 4,6 C 3,9 C 2,8 C 84 % 1007,2 hPa 0,0 l/m 0 min 0 min 33 W/m 19,3 km/h (3 Bft) 97,87 %
07.12.2021 15:38 4,6 C 3,9 C 2,8 C 84 % 1007,1 hPa 0,0 l/m 0 min 0 min 33 W/m 19,3 km/h (3 Bft) 100,00 %
07.12.2021 15:40 4,6 C 3,9 C 2,8 C 84 % 1007,1 hPa 0,0 l/m 0 min 0 min 31 W/m 12,9 km/h (3 Bft) 100,00 %
07.12.2021 15:42 4,6 C 3,9 C 2,8 C 84 % 1007,1 hPa 0,0 l/m 0 min 0 min 29 W/m 22,5 km/h (4 Bft) 100,00 %
07.12.2021 15:44 4,5 C 3,9 C 2,8 C 84 % 1007,0 hPa 0,0 l/m 0 min 0 min 27 W/m 25,7 km/h (4 Bft) 97,87 %
07.12.2021 15:46 4,4 C 3,9 C 2,8 C 84 % 1007,0 hPa 0,0 l/m 0 min 0 min 26 W/m 12,9 km/h (3 Bft) 100,00 %
07.12.2021 15:48 4,4 C 3,9 C 2,8 C 84 % 1007,0 hPa 0,0 l/m 0 min 0 min 24 W/m 22,5 km/h (4 Bft) 100,00 %
07.12.2021 15:50 4,4 C 3,9 C 2,8 C 84 % 1006,9 hPa 0,0 l/m 0 min 0 min 22 W/m 22,5 km/h (4 Bft) 97,87 %
07.12.2021 15:52 4,4 C 3,9 C 2,8 C 85 % 1006,9 hPa 0,0 l/m 0 min 0 min 21 W/m 22,5 km/h (4 Bft) 97,87 %
07.12.2021 15:54 4,3 C 3,9 C 2,8 C 84 % 1006,9 hPa 0,0 l/m 0 min 0 min 19 W/m 16,1 km/h (3 Bft) 95,74 %
07.12.2021 15:56 4,3 C 3,9 C 2,8 C 84 % 1006,9 hPa 0,0 l/m 0 min 0 min 18 W/m 19,3 km/h (3 Bft) 95,74 %
07.12.2021 15:58 4,3 C 3,9 C 2,8 C 84 % 1006,8 hPa 0,0 l/m 0 min 0 min 17 W/m 22,5 km/h (4 Bft) 97,83 %
07.12.2021 16:00 4,3 C 3,9 C 2,8 C 84 % 1006,8 hPa 0,0 l/m 0 min 0 min 15 W/m 25,7 km/h (4 Bft) 95,74 %
07.12.2021 16:02 4,3 C 3,9 C 2,8 C 84 % 1006,7 hPa 0,0 l/m 0 min 0 min 13 W/m 19,3 km/h (3 Bft) 95,74 %
07.12.2021 16:04 4,2 C 3,9 C 2,8 C 84 % 1006,7 hPa 0,0 l/m 0 min 0 min 12 W/m 19,3 km/h (3 Bft) 97,87 %
07.12.2021 16:06 4,2 C 3,9 C 2,8 C 84 % 1006,7 hPa 0,0 l/m 0 min 0 min 11 W/m 19,3 km/h (3 Bft) 95,74 %
07.12.2021 16:08 4,2 C 3,9 C 2,8 C 84 % 1006,6 hPa 0,0 l/m 0 min 0 min 10 W/m 19,3 km/h (3 Bft) 95,74 %
07.12.2021 16:10 4,2 C 3,9 C 2,2 C 84 % 1006,6 hPa 0,0 l/m 0 min 0 min 9 W/m 22,5 km/h (4 Bft) 95,65 %
07.12.2021 16:12 4,1 C 3,9 C 2,2 C 84 % 1006,6 hPa 0,0 l/m 0 min 0 min 7 W/m 19,3 km/h (3 Bft) 95,74 %
07.12.2021 16:14 4,1 C 3,3 C 2,2 C 84 % 1006,5 hPa 0,0 l/m 0 min 0 min 7 W/m 19,3 km/h (3 Bft) 95,74 %
07.12.2021 16:16 4,1 C 3,3 C 2,2 C 85 % 1006,4 hPa 0,0 l/m 0 min 0 min 5 W/m 16,1 km/h (3 Bft) 91,49 %
07.12.2021 16:18 4,1 C 3,3 C 2,2 C 85 % 1006,4 hPa 0,0 l/m 0 min 0 min 5 W/m 19,3 km/h (3 Bft) 97,87 %
07.12.2021 16:20 4,1 C 3,3 C 2,2 C 85 % 1006,4 hPa 0,0 l/m 0 min 0 min 4 W/m 19,3 km/h (3 Bft) 97,83 %
07.12.2021 16:22 4,0 C 3,3 C 2,2 C 85 % 1006,4 hPa 0,0 l/m 0 min 0 min 0 W/m 19,3 km/h (3 Bft) 95,74 %
07.12.2021 16:24 4,0 C 3,3 C 2,2 C 85 % 1006,3 hPa 0,0 l/m 0 min 0 min 0 W/m 19,3 km/h (3 Bft) 93,62 %
07.12.2021 16:26 3,9 C 3,3 C 2,2 C 85 % 1006,2 hPa 0,0 l/m 0 min 0 min 0 W/m 19,3 km/h (3 Bft) 93,62 %
07.12.2021 16:28 3,9 C 3,3 C 2,2 C 85 % 1006,3 hPa 0,0 l/m 0 min 0 min 0 W/m 16,1 km/h (3 Bft) 95,74 %
07.12.2021 16:30 3,9 C 3,3 C 2,2 C 85 % 1006,2 hPa 0,0 l/m 0 min 0 min 0 W/m 25,7 km/h (4 Bft) 93,62 %
07.12.2021 16:32 3,8 C 3,3 C 2,2 C 85 % 1006,2 hPa 0,0 l/m 0 min 0 min 0 W/m 22,5 km/h (4 Bft) 95,65 %
07.12.2021 16:34 3,8 C 3,3 C 2,2 C 85 % 1006,1 hPa 0,0 l/m 0 min 0 min 0 W/m 16,1 km/h (3 Bft) 95,74 %
07.12.2021 16:36 3,8 C 3,3 C 2,2 C 85 % 1006,1 hPa 0,0 l/m 0 min 0 min 0 W/m 22,5 km/h (4 Bft) 93,62 %
07.12.2021 16:38 3,8 C 3,3 C 2,2 C 85 % 1006,1 hPa 0,0 l/m 0 min 0 min 0 W/m 22,5 km/h (4 Bft) 95,74 %
07.12.2021 16:40 3,8 C 3,3 C 2,2 C 85 % 1006,1 hPa 0,0 l/m 0 min 0 min 0 W/m 19,3 km/h (3 Bft) 93,62 %
07.12.2021 16:42 3,8 C 3,3 C 2,2 C 85 % 1006,1 hPa 0,0 l/m 0 min 0 min 0 W/m 16,1 km/h (3 Bft) 97,87 %
07.12.2021 16:44 3,8 C 3,3 C 2,2 C 85 % 1006,1 hPa 0,0 l/m 0 min 0 min 0 W/m 16,1 km/h (3 Bft) 97,83 %
07.12.2021 16:46 3,7 C 3,3 C 2,2 C 85 % 1006,0 hPa 0,0 l/m 0 min 0 min 0 W/m 16,1 km/h (3 Bft) 97,87 %
07.12.2021 16:48 3,7 C 3,3 C 2,2 C 85 % 1006,0 hPa 0,0 l/m 0 min 0 min 0 W/m 19,3 km/h (3 Bft) 93,62 %
07.12.2021 16:50 3,7 C 3,3 C 1,7 C 85 % 1006,0 hPa 0,0 l/m 0 min 0 min 0 W/m 19,3 km/h (3 Bft) 95,74 %
07.12.2021 16:52 3,7 C 3,3 C 1,7 C 85 % 1006,0 hPa 0,0 l/m 0 min 0 min 0 W/m 16,1 km/h (3 Bft) 97,87 %
07.12.2021 16:54 3,7 C 3,3 C 1,7 C 85 % 1006,1 hPa 0,0 l/m 0 min 0 min 0 W/m 19,3 km/h (3 Bft) 95,74 %
07.12.2021 16:56 3,6 C 3,3 C 1,7 C 85 % 1005,9 hPa 0,0 l/m 0 min 0 min 0 W/m 19,3 km/h (3 Bft) 97,83 %
07.12.2021 16:58 3,6 C 2,8 C 1,7 C 85 % 1005,8 hPa 0,0 l/m 0 min 0 min 0 W/m 12,9 km/h (3 Bft) 93,62 %
07.12.2021 17:00 3,6 C 2,8 C 1,7 C 85 % 1005,8 hPa 0,0 l/m 0 min 0 min 0 W/m 12,9 km/h (3 Bft) 95,74 %
07.12.2021 17:02 3,6 C 2,8 C 1,7 C 86 % 1005,7 hPa 0,0 l/m 0 min 0 min 0 W/m 19,3 km/h (3 Bft) 95,74 %
07.12.2021 17:04 3,6 C 2,8 C 1,7 C 86 % 1005,7 hPa 0,0 l/m 0 min 0 min 0 W/m 16,1 km/h (3 Bft) 93,62 %
07.12.2021 17:06 3,6 C 3,3 C 1,7 C 86 % 1005,7 hPa 0,0 l/m 0 min 0 min 0 W/m 35,4 km/h (5 Bft) 95,74 %
07.12.2021 17:08 3,6 C 3,3 C 1,7 C 86 % 1005,6 hPa 0,0 l/m 0 min 0 min 0 W/m 22,5 km/h (4 Bft) 97,83 %
07.12.2021 17:10 3,6 C 3,3 C 1,7 C 86 % 1005,5 hPa 0,0 l/m 0 min 0 min 0 W/m 19,3 km/h (3 Bft) 97,87 %
07.12.2021 17:12 3,5 C 3,3 C 1,7 C 86 % 1005,5 hPa 0,0 l/m 0 min 0 min 0 W/m 19,3 km/h (3 Bft) 100,00 %
07.12.2021 17:14 3,5 C 3,3 C 1,7 C 85 % 1005,5 hPa 0,0 l/m 0 min 0 min 0 W/m 19,3 km/h (3 Bft) 97,87 %
07.12.2021 17:16 3,5 C 3,3 C 1,7 C 86 % 1005,5 hPa 0,0 l/m 0 min 0 min 0 W/m 19,3 km/h (3 Bft) 97,87 %
07.12.2021 17:18 3,5 C 3,3 C 1,7 C 86 % 1005,5 hPa 0,0 l/m 0 min 0 min 0 W/m 16,1 km/h (3 Bft) 97,83 %
07.12.2021 17:20 3,5 C 3,3 C 1,7 C 86 % 1005,4 hPa 0,0 l/m 0 min 0 min 0 W/m 19,3 km/h (3 Bft) 97,87 %
07.12.2021 17:22 3,5 C 3,3 C 1,7 C 86 % 1005,3 hPa 0,0 l/m 0 min 0 min 0 W/m 25,7 km/h (4 Bft) 95,74 %
07.12.2021 17:24 3,5 C 3,3 C 1,7 C 86 % 1005,3 hPa 0,0 l/m 0 min 0 min 0 W/m 22,5 km/h (4 Bft) 97,87 %
07.12.2021 17:26 3,5 C 3,3 C 1,7 C 86 % 1005,3 hPa 0,0 l/m 0 min 0 min 0 W/m 25,7 km/h (4 Bft) 97,87 %
07.12.2021 17:28 3,5 C 3,3 C 1,7 C 86 % 1005,2 hPa 0,0 l/m 0 min 0 min 0 W/m 19,3 km/h (3 Bft) 97,87 %
07.12.2021 17:30 3,5 C 3,3 C 1,7 C 86 % 1005,1 hPa 0,0 l/m 0 min 0 min 0 W/m 19,3 km/h (3 Bft) 100,00 %
07.12.2021 17:32 3,5 C 3,3 C 1,7 C 86 % 1005,0 hPa 0,0 l/m 0 min 0 min 0 W/m 19,3 km/h (3 Bft) 100,00 %
07.12.2021 17:34 3,5 C 3,3 C 1,7 C 86 % 1005,0 hPa 0,0 l/m 0 min 0 min 0 W/m 22,5 km/h (4 Bft) 97,87 %
07.12.2021 17:36 3,5 C 3,3 C 1,7 C 86 % 1004,9 hPa 0,0 l/m 0 min 0 min 0 W/m 19,3 km/h (3 Bft) 95,74 %
07.12.2021 17:38 3,4 C 2,8 C 1,7 C 86 % 1004,8 hPa 0,0 l/m 0 min 0 min 0 W/m 19,3 km/h (3 Bft) 100,00 %
07.12.2021 17:40 3,4 C 2,8 C 1,7 C 86 % 1004,7 hPa 0,0 l/m 0 min 0 min 0 W/m 12,9 km/h (3 Bft) 97,87 %
07.12.2021 17:42 3,4 C 2,8 C 1,7 C 86 % 1004,7 hPa 0,0 l/m 0 min 0 min 0 W/m 19,3 km/h (3 Bft) 100,00 %
07.12.2021 17:44 3,4 C 2,8 C 1,7 C 86 % 1004,6 hPa 0,0 l/m 0 min 0 min 0 W/m 19,3 km/h (3 Bft) 100,00 %
07.12.2021 17:46 3,4 C 3,3 C 1,7 C 86 % 1004,7 hPa 0,0 l/m 0 min 0 min 0 W/m 19,3 km/h (3 Bft) 100,00 %
07.12.2021 17:48 3,4 C 3,3 C 1,7 C 86 % 1004,7 hPa 0,0 l/m 0 min 0 min 0 W/m 19,3 km/h (3 Bft) 100,00 %
07.12.2021 17:50 3,4 C 3,3 C 1,7 C 86 % 1004,7 hPa 0,0 l/m 0 min 0 min 0 W/m 19,3 km/h (3 Bft) 100,00 %
07.12.2021 17:52 3,4 C 3,3 C 1,7 C 86 % 1004,7 hPa 0,0 l/m 0 min 0 min 0 W/m 19,3 km/h (3 Bft) 100,00 %
07.12.2021 17:54 3,4 C 3,3 C 1,7 C 86 % 1004,6 hPa 0,0 l/m 0 min 0 min 0 W/m 22,5 km/h (4 Bft) 97,83 %
07.12.2021 17:56 3,5 C 3,3 C 1,7 C 86 % 1004,6 hPa 0,0 l/m 0 min 0 min 0 W/m 19,3 km/h (3 Bft) 100,00 %
07.12.2021 17:58 3,5 C 3,3 C 1,7 C 86 % 1004,6 hPa 0,0 l/m 0 min 0 min 0 W/m 16,1 km/h (3 Bft) 100,00 %
07.12.2021 18:00 3,5 C 3,3 C 1,7 C 86 % 1004,5 hPa 0,0 l/m 0 min 0 min 0 W/m 19,3 km/h (3 Bft) 100,00 %
07.12.2021 18:02 3,5 C 3,3 C 1,7 C 86 % 1004,5 hPa 0,0 l/m 0 min 0 min 0 W/m 19,3 km/h (3 Bft) 100,00 %
07.12.2021 18:04 3,5 C 3,3 C 1,7 C 86 % 1004,5 hPa 0,0 l/m 0 min 0 min 0 W/m 19,3 km/h (3 Bft) 100,00 %
07.12.2021 18:06 3,5 C 3,3 C 1,7 C 86 % 1004,4 hPa 0,0 l/m 0 min 0 min 0 W/m 12,9 km/h (3 Bft) 100,00 %
07.12.2021 18:08 3,5 C 3,3 C 1,7 C 86 % 1004,3 hPa 0,0 l/m 0 min 0 min 0 W/m 22,5 km/h (4 Bft) 100,00 %
07.12.2021 18:10 3,6 C 3,3 C 1,7 C 86 % 1004,3 hPa 0,0 l/m 0 min 0 min 0 W/m 19,3 km/h (3 Bft) 100,00 %
07.12.2021 18:12 3,6 C 3,3 C 1,7 C 86 % 1004,2 hPa 0,0 l/m 0 min 0 min 0 W/m 19,3 km/h (3 Bft) 100,00 %
07.12.2021 18:14 3,6 C 3,3 C 1,7 C 86 % 1004,2 hPa 0,0 l/m 0 min 0 min 0 W/m 22,5 km/h (4 Bft) 97,87 %
07.12.2021 18:16 3,6 C 3,3 C 1,7 C 86 % 1004,0 hPa 0,0 l/m 0 min 0 min 0 W/m 12,9 km/h (3 Bft) 52,27 %
07.12.2021 18:18 3,6 C 3,3 C 1,7 C 86 % 1003,9 hPa 0,0 l/m 0 min 0 min 0 W/m 16,1 km/h (3 Bft) 100,00 %
07.12.2021 18:20 3,6 C 3,3 C 1,7 C 86 % 1003,9 hPa 0,0 l/m 0 min 0 min 0 W/m 19,3 km/h (3 Bft) 100,00 %
07.12.2021 18:22 3,6 C 3,3 C 1,7 C 86 % 1003,9 hPa 0,0 l/m 0 min 0 min 0 W/m 19,3 km/h (3 Bft) 100,00 %
07.12.2021 18:24 3,6 C 3,3 C 1,7 C 86 % 1003,8 hPa 0,0 l/m 0 min 0 min 0 W/m 19,3 km/h (3 Bft) 100,00 %
07.12.2021 18:26 3,6 C 3,3 C 1,7 C 86 % 1003,8 hPa 0,0 l/m 0 min 0 min 0 W/m 19,3 km/h (3 Bft) 100,00 %
07.12.2021 18:28 3,6 C 3,3 C 1,7 C 86 % 1003,8 hPa 0,0 l/m 0 min 0 min 0 W/m 32,2 km/h (5 Bft) 100,00 %
07.12.2021 18:30 3,6 C 3,3 C 1,7 C 86 % 1003,6 hPa 0,0 l/m 0 min 0 min 0 W/m 19,3 km/h (3 Bft) 100,00 %
07.12.2021 18:32 3,6 C 3,3 C 1,7 C 86 % 1003,5 hPa 0,0 l/m 0 min 0 min 0 W/m 22,5 km/h (4 Bft) 100,00 %
07.12.2021 18:34 3,6 C 3,3 C 1,7 C 86 % 1003,5 hPa 0,0 l/m 0 min 0 min 0 W/m 16,1 km/h (3 Bft) 97,87 %
07.12.2021 18:36 3,6 C 3,3 C 1,7 C 86 % 1003,5 hPa 0,0 l/m 0 min 0 min 0 W/m 16,1 km/h (3 Bft) 97,87 %
07.12.2021 18:38 3,6 C 3,3 C 1,7 C 86 % 1003,3 hPa 0,0 l/m 0 min 0 min 0 W/m 22,5 km/h (4 Bft) 100,00 %
07.12.2021 18:40 3,6 C 3,3 C 1,7 C 86 % 1003,1 hPa 0,0 l/m 0 min 0 min 0 W/m 29,0 km/h (5 Bft) 100,00 %
07.12.2021 18:42 3,6 C 3,3 C 1,7 C 86 % 1003,0 hPa 0,0 l/m 0 min 0 min 0 W/m 29,0 km/h (5 Bft) 97,87 %
07.12.2021 18:44 3,6 C 3,3 C 1,7 C 86 % 1002,9 hPa 0,0 l/m 0 min 0 min 0 W/m 16,1 km/h (3 Bft) 95,74 %
07.12.2021 18:46 3,6 C 3,3 C 1,7 C 86 % 1002,8 hPa 0,0 l/m 0 min 0 min 0 W/m 25,7 km/h (4 Bft) 100,00 %
07.12.2021 18:48 3,6 C 3,3 C 1,7 C 86 % 1002,8 hPa 0,0 l/m 0 min 0 min 0 W/m 22,5 km/h (4 Bft) 100,00 %
07.12.2021 18:50 3,7 C 3,3 C 1,7 C 86 % 1002,8 hPa 0,0 l/m 0 min 0 min 0 W/m 32,2 km/h (5 Bft) 95,74 %
07.12.2021 18:52 3,7 C 3,3 C 1,7 C 86 % 1002,7 hPa 0,0 l/m 0 min 0 min 0 W/m 19,3 km/h (3 Bft) 97,83 %
07.12.2021 18:54 3,7 C 3,3 C 1,7 C 86 % 1002,8 hPa 0,0 l/m 0 min 0 min 0 W/m 25,7 km/h (4 Bft) 93,62 %
07.12.2021 18:56 3,7 C 3,3 C 1,7 C 86 % 1002,8 hPa 0,0 l/m 0 min 0 min 0 W/m 22,5 km/h (4 Bft) 93,62 %
07.12.2021 18:58 3,7 C 3,3 C 1,7 C 86 % 1002,7 hPa 0,0 l/m 0 min 0 min 0 W/m 22,5 km/h (4 Bft) 93,62 %
07.12.2021 19:00 3,7 C 3,3 C 1,7 C 86 % 1002,6 hPa 0,0 l/m 0 min 0 min 0 W/m 22,5 km/h (4 Bft) 91,49 %
07.12.2021 19:02 3,7 C 3,3 C 1,7 C 86 % 1002,5 hPa 0,0 l/m 0 min 0 min 0 W/m 38,6 km/h (5 Bft) 91,30 %
07.12.2021 19:04 3,8 C 3,3 C 1,7 C 86 % 1002,4 hPa 0,0 l/m 0 min 0 min 0 W/m 25,7 km/h (4 Bft) 93,62 %
07.12.2021 19:06 3,8 C 3,3 C 1,7 C 86 % 1002,4 hPa 0,0 l/m 0 min 0 min 0 W/m 32,2 km/h (5 Bft) 93,62 %
07.12.2021 19:08 3,8 C 3,3 C 1,7 C 86 % 1002,2 hPa 0,0 l/m 0 min 0 min 0 W/m 35,4 km/h (5 Bft) 93,62 %
07.12.2021 19:10 3,8 C 3,3 C 1,7 C 86 % 1002,2 hPa 0,0 l/m 0 min 0 min 0 W/m 32,2 km/h (5 Bft) 93,62 %
07.12.2021 19:12 3,8 C 3,3 C 1,7 C 86 % 1002,2 hPa 0,0 l/m 0 min 0 min 0 W/m 25,7 km/h (4 Bft) 91,49 %
07.12.2021 19:14 3,8 C 3,3 C 1,7 C 86 % 1002,1 hPa 0,0 l/m 0 min 0 min 0 W/m 25,7 km/h (4 Bft) 93,48 %
07.12.2021 19:16 3,9 C 3,3 C 1,7 C 86 % 1002,1 hPa 0,0 l/m 0 min 0 min 0 W/m 25,7 km/h (4 Bft) 52,27 %
07.12.2021 19:18 3,9 C 3,3 C 1,7 C 86 % 1002,0 hPa 0,0 l/m 0 min 0 min 0 W/m 25,7 km/h (4 Bft) 91,49 %
07.12.2021 19:20 3,9 C 3,3 C 1,7 C 86 % 1001,9 hPa 0,0 l/m 0 min 0 min 0 W/m 22,5 km/h (4 Bft) 93,62 %
07.12.2021 19:22 3,9 C 3,3 C 1,7 C 86 % 1001,9 hPa 0,0 l/m 0 min 0 min 0 W/m 25,7 km/h (4 Bft) 91,49 %
07.12.2021 19:24 3,9 C 3,3 C 1,7 C 86 % 1001,8 hPa 0,0 l/m 0 min 0 min 0 W/m 25,7 km/h (4 Bft) 93,62 %
07.12.2021 19:26 3,9 C 3,3 C 1,7 C 86 % 1001,7 hPa 0,0 l/m 0 min 0 min 0 W/m 25,7 km/h (4 Bft) 95,65 %
07.12.2021 19:28 3,9 C 3,3 C 1,7 C 86 % 1001,6 hPa 0,0 l/m 0 min 0 min 0 W/m 25,7 km/h (4 Bft) 93,62 %
07.12.2021 19:30 3,9 C 3,3 C 1,7 C 86 % 1001,5 hPa 0,0 l/m 0 min 0 min 0 W/m 35,4 km/h (5 Bft) 95,74 %
07.12.2021 19:32 3,9 C 3,3 C 1,7 C 86 % 1001,3 hPa 0,0 l/m 0 min 0 min 0 W/m 25,7 km/h (4 Bft) 95,74 %
07.12.2021 19:34 3,9 C 3,3 C 1,7 C 86 % 1001,2 hPa 0,0 l/m 0 min 0 min 0 W/m 25,7 km/h (4 Bft) 91,49 %
07.12.2021 19:36 3,9 C 3,3 C 1,7 C 86 % 1001,0 hPa 0,0 l/m 0 min 0 min 0 W/m 25,7 km/h (4 Bft) 97,87 %
07.12.2021 19:38 3,9 C 3,3 C 1,7 C 85 % 1001,0 hPa 0,0 l/m 0 min 0 min 0 W/m 25,7 km/h (4 Bft) 95,65 %
07.12.2021 19:42 3,9 C 3,3 C 1,7 C 86 % 1000,9 hPa 0,0 l/m 0 min 0 min 0 W/m 29,0 km/h (5 Bft) 98,96 %
07.12.2021 19:44 3,9 C 3,3 C 1,7 C 86 % 1000,9 hPa 0,0 l/m 0 min 0 min 0 W/m 19,3 km/h (3 Bft) 100,00 %
07.12.2021 19:46 3,9 C 3,3 C 1,7 C 86 % 1001,0 hPa 0,0 l/m 0 min 0 min 0 W/m 32,2 km/h (5 Bft) 100,00 %
07.12.2021 19:48 3,9 C 3,9 C 1,7 C 86 % 1000,9 hPa 0,0 l/m 0 min 0 min 0 W/m 29,0 km/h (5 Bft) 98,00 %
07.12.2021 19:50 3,9 C 3,3 C 1,7 C 86 % 1000,9 hPa 0,0 l/m 0 min 0 min 0 W/m 22,5 km/h (4 Bft) 100,00 %
07.12.2021 19:52 3,9 C 3,3 C 1,7 C 86 % 1000,8 hPa 0,0 l/m 0 min 0 min 0 W/m 25,7 km/h (4 Bft) 97,96 %
07.12.2021 19:54 3,9 C 3,3 C 1,7 C 86 % 1000,8 hPa 0,0 l/m 0 min 0 min 0 W/m 25,7 km/h (4 Bft) 100,00 %
07.12.2021 19:56 3,9 C 3,3 C 1,7 C 86 % 1000,8 hPa 0,0 l/m 0 min 0 min 0 W/m 19,3 km/h (3 Bft) 100,00 %
07.12.2021 19:58 3,9 C 3,3 C 1,7 C 86 % 1000,8 hPa 0,0 l/m 0 min 0 min 0 W/m 19,3 km/h (3 Bft) 97,87 %
07.12.2021 20:00 3,9 C 3,3 C 1,7 C 86 % 1000,8 hPa 0,0 l/m 0 min 0 min 0 W/m 19,3 km/h (3 Bft) 100,00 %
07.12.2021 20:02 3,9 C 3,3 C 1,7 C 86 % 1000,8 hPa 0,0 l/m 0 min 0 min 0 W/m 25,7 km/h (4 Bft) 95,74 %
07.12.2021 20:04 3,9 C 3,3 C 1,7 C 86 % 1000,7 hPa 0,0 l/m 0 min 0 min 0 W/m 19,3 km/h (3 Bft) 100,00 %
07.12.2021 20:06 3,9 C 3,3 C 1,7 C 86 % 1000,7 hPa 0,0 l/m 0 min 0 min 0 W/m 22,5 km/h (4 Bft) 100,00 %
07.12.2021 20:08 3,9 C 3,9 C 1,7 C 86 % 1000,6 hPa 0,0 l/m 0 min 0 min 0 W/m 32,2 km/h (5 Bft) 100,00 %
07.12.2021 20:10 3,9 C 3,9 C 1,7 C 86 % 1000,4 hPa 0,0 l/m 0 min 0 min 0 W/m 25,7 km/h (4 Bft) 97,87 %
07.12.2021 20:12 4,0 C 3,9 C 1,7 C 86 % 1000,3 hPa 0,0 l/m 0 min 0 min 0 W/m 25,7 km/h (4 Bft) 100,00 %
07.12.2021 20:14 4,0 C 3,9 C 1,7 C 86 % 1000,2 hPa 0,0 l/m 0 min 0 min 0 W/m 22,5 km/h (4 Bft) 100,00 %
07.12.2021 20:16 4,0 C 3,9 C 1,7 C 86 % 1000,2 hPa 0,0 l/m 0 min 0 min 0 W/m 35,4 km/h (5 Bft) 100,00 %
07.12.2021 20:18 4,1 C 3,9 C 1,7 C 86 % 1000,2 hPa 0,0 l/m 0 min 0 min 0 W/m 32,2 km/h (5 Bft) 100,00 %
07.12.2021 20:20 4,1 C 3,9 C 1,7 C 86 % 1000,1 hPa 0,0 l/m 0 min 0 min 0 W/m 25,7 km/h (4 Bft) 100,00 %
07.12.2021 20:22 4,1 C 3,9 C 1,7 C 85 % 1000,0 hPa 0,0 l/m 0 min 0 min 0 W/m 35,4 km/h (5 Bft) 100,00 %
07.12.2021 20:24 4,1 C 3,9 C 1,7 C 85 % 999,9 hPa 0,0 l/m 0 min 0 min 0 W/m 25,7 km/h (4 Bft) 100,00 %
07.12.2021 20:26 4,2 C 3,9 C 1,7 C 85 % 999,9 hPa 0,0 l/m 0 min 0 min 0 W/m 22,5 km/h (4 Bft) 97,87 %
07.12.2021 20:28 4,2 C 3,9 C 1,7 C 85 % 999,8 hPa 0,0 l/m 0 min 0 min 0 W/m 25,7 km/h (4 Bft) 100,00 %
07.12.2021 20:30 4,2 C 3,9 C 1,7 C 85 % 999,7 hPa 0,0 l/m 0 min 0 min 0 W/m 25,7 km/h (4 Bft) 100,00 %
07.12.2021 20:32 4,2 C 3,9 C 1,7 C 85 % 999,6 hPa 0,0 l/m 0 min 0 min 0 W/m 29,0 km/h (5 Bft) 100,00 %
07.12.2021 20:34 4,2 C 3,9 C 1,7 C 85 % 999,5 hPa 0,0 l/m 0 min 0 min 0 W/m 38,6 km/h (5 Bft) 100,00 %
07.12.2021 20:36 4,2 C 3,9 C 1,7 C 85 % 999,6 hPa 0,0 l/m 0 min 0 min 0 W/m 25,7 km/h (4 Bft) 100,00 %
07.12.2021 20:38 4,2 C 3,9 C 2,2 C 85 % 999,5 hPa 0,0 l/m 0 min 0 min 0 W/m 32,2 km/h (5 Bft) 100,00 %
07.12.2021 20:40 4,3 C 3,9 C 2,2 C 85 % 999,4 hPa 0,0 l/m 0 min 0 min 0 W/m 29,0 km/h (5 Bft) 100,00 %
07.12.2021 20:42 4,3 C 3,9 C 2,2 C 85 % 999,4 hPa 0,0 l/m 0 min 0 min 0 W/m 32,2 km/h (5 Bft) 100,00 %
07.12.2021 20:44 4,3 C 3,9 C 2,2 C 85 % 999,3 hPa 0,0 l/m 0 min 0 min 0 W/m 38,6 km/h (5 Bft) 97,87 %
07.12.2021 20:46 4,3 C 3,9 C 2,2 C 85 % 999,4 hPa 0,0 l/m 0 min 0 min 0 W/m 22,5 km/h (4 Bft) 100,00 %
07.12.2021 20:48 4,3 C 3,9 C 2,2 C 85 % 999,3 hPa 0,0 l/m 0 min 0 min 0 W/m 51,5 km/h (7 Bft) 100,00 %
07.12.2021 20:50 4,4 C 3,9 C 2,2 C 85 % 999,2 hPa 0,0 l/m 0 min 0 min 0 W/m 29,0 km/h (5 Bft) 95,74 %
07.12.2021 20:52 4,4 C 3,9 C 2,2 C 85 % 999,2 hPa 0,0 l/m 0 min 0 min 0 W/m 32,2 km/h (5 Bft) 95,65 %
07.12.2021 20:54 4,4 C 3,9 C 2,2 C 85 % 999,1 hPa 0,0 l/m 0 min 0 min 0 W/m 45,1 km/h (6 Bft) 97,87 %
07.12.2021 20:56 4,4 C 3,9 C 2,2 C 85 % 999,1 hPa 0,0 l/m 0 min 0 min 0 W/m 35,4 km/h (5 Bft) 97,87 %
07.12.2021 20:58 4,4 C 4,4 C 2,2 C 85 % 999,0 hPa 0,0 l/m 0 min 0 min 0 W/m 38,6 km/h (5 Bft) 97,87 %
07.12.2021 21:00 4,5 C 4,4 C 2,2 C 85 % 999,1 hPa 0,0 l/m 0 min 0 min 0 W/m 29,0 km/h (5 Bft) 97,87 %
07.12.2021 21:02 4,5 C 4,4 C 2,2 C 85 % 998,9 hPa 0,0 l/m 0 min 0 min 0 W/m 29,0 km/h (5 Bft) 97,87 %
07.12.2021 21:04 4,5 C 4,4 C 2,2 C 85 % 998,7 hPa 0,0 l/m 0 min 0 min 0 W/m 38,6 km/h (5 Bft) 95,65 %
07.12.2021 21:06 4,6 C 4,4 C 2,2 C 85 % 998,5 hPa 0,0 l/m 0 min 0 min 0 W/m 35,4 km/h (5 Bft) 97,87 %
07.12.2021 21:08 4,6 C 4,4 C 2,2 C 85 % 998,4 hPa 0,0 l/m 0 min 0 min 0 W/m 35,4 km/h (5 Bft) 97,87 %
07.12.2021 21:10 4,6 C 4,4 C 2,2 C 85 % 998,4 hPa 0,0 l/m 0 min 0 min 0 W/m 25,7 km/h (4 Bft) 95,74 %
07.12.2021 21:12 4,6 C 4,4 C 2,2 C 85 % 998,3 hPa 0,0 l/m 0 min 0 min 0 W/m 29,0 km/h (5 Bft) 97,87 %
07.12.2021 21:14 4,6 C 4,4 C 2,2 C 85 % 998,1 hPa 0,0 l/m 0 min 0 min 0 W/m 48,3 km/h (6 Bft) 97,87 %
07.12.2021 21:16 4,6 C 4,4 C 2,2 C 85 % 998,1 hPa 0,0 l/m 0 min 0 min 0 W/m 25,7 km/h (4 Bft) 97,83 %
07.12.2021 21:18 4,6 C 4,4 C 2,2 C 85 % 998,1 hPa 0,0 l/m 0 min 0 min 0 W/m 29,0 km/h (5 Bft) 100,00 %
07.12.2021 21:20 4,6 C 4,4 C 2,2 C 85 % 998,0 hPa 0,0 l/m 0 min 0 min 0 W/m 35,4 km/h (5 Bft) 97,87 %
07.12.2021 21:22 4,6 C 4,4 C 2,2 C 85 % 998,1 hPa 0,0 l/m 0 min 0 min 0 W/m 35,4 km/h (5 Bft) 97,87 %
07.12.2021 21:24 4,7 C 4,4 C 2,2 C 85 % 998,0 hPa 0,0 l/m 0 min 0 min 0 W/m 35,4 km/h (5 Bft) 97,87 %
07.12.2021 21:26 4,7 C 4,4 C 2,2 C 85 % 998,0 hPa 0,0 l/m 0 min 0 min 0 W/m 51,5 km/h (7 Bft) 100,00 %
07.12.2021 21:28 4,7 C 4,4 C 2,2 C 85 % 998,0 hPa 0,0 l/m 0 min 0 min 0 W/m 32,2 km/h (5 Bft) 100,00 %
07.12.2021 21:30 4,7 C 4,4 C 2,2 C 85 % 998,0 hPa 0,0 l/m 0 min 0 min 0 W/m 29,0 km/h (5 Bft) 97,87 %
07.12.2021 21:32 4,7 C 4,4 C 2,2 C 85 % 998,0 hPa 0,0 l/m 0 min 0 min 0 W/m 38,6 km/h (5 Bft) 97,87 %
07.12.2021 21:34 4,7 C 4,4 C 2,2 C 85 % 997,8 hPa 0,0 l/m 0 min 0 min 0 W/m 38,6 km/h (5 Bft) 97,87 %
07.12.2021 21:36 4,7 C 4,4 C 2,2 C 85 % 998,0 hPa 0,0 l/m 0 min 0 min 0 W/m 41,8 km/h (6 Bft) 97,87 %
07.12.2021 21:38 4,7 C 4,4 C 2,2 C 84 % 997,9 hPa 0,0 l/m 0 min 0 min 0 W/m 25,7 km/h (4 Bft) 97,83 %
07.12.2021 21:40 4,7 C 4,4 C 2,2 C 85 % 997,9 hPa 0,0 l/m 0 min 0 min 0 W/m 35,4 km/h (5 Bft) 93,62 %
07.12.2021 21:42 4,7 C 4,4 C 2,2 C 85 % 998,0 hPa 0,0 l/m 0 min 0 min 0 W/m 35,4 km/h (5 Bft) 97,87 %
07.12.2021 21:44 4,7 C 4,4 C 2,2 C 84 % 998,0 hPa 0,0 l/m 0 min 0 min 0 W/m 32,2 km/h (5 Bft) 97,87 %
07.12.2021 21:46 4,8 C 4,4 C 2,2 C 84 % 998,2 hPa 0,0 l/m 0 min 0 min 0 W/m 38,6 km/h (5 Bft) 95,74 %
07.12.2021 21:48 4,8 C 4,4 C 2,2 C 84 % 998,1 hPa 0,0 l/m 0 min 0 min 0 W/m 35,4 km/h (5 Bft) 93,62 %
07.12.2021 21:50 4,8 C 4,4 C 2,2 C 84 % 998,1 hPa 0,0 l/m 0 min 0 min 0 W/m 32,2 km/h (5 Bft) 95,74 %
07.12.2021 21:52 4,8 C 4,4 C 2,2 C 84 % 998,1 hPa 0,0 l/m 0 min 0 min 0 W/m 45,1 km/h (6 Bft) 97,83 %
07.12.2021 21:54 4,8 C 4,4 C 2,2 C 84 % 997,9 hPa 0,0 l/m 0 min 0 min 0 W/m 32,2 km/h (5 Bft) 95,74 %
07.12.2021 21:56 4,8 C 4,4 C 2,2 C 84 % 997,9 hPa 0,0 l/m 0 min 0 min 0 W/m 35,4 km/h (5 Bft) 95,74 %
07.12.2021 21:58 4,8 C 4,4 C 2,2 C 84 % 998,0 hPa 0,0 l/m 0 min 0 min 0 W/m 35,4 km/h (5 Bft) 95,74 %
07.12.2021 22:00 4,8 C 4,4 C 2,2 C 84 % 997,9 hPa 0,0 l/m 0 min 0 min 0 W/m 38,6 km/h (5 Bft) 95,74 %
07.12.2021 22:02 4,8 C 4,4 C 2,2 C 84 % 997,9 hPa 0,0 l/m 0 min 0 min 0 W/m 29,0 km/h (5 Bft) 95,65 %
07.12.2021 22:04 4,8 C 4,4 C 2,2 C 84 % 997,9 hPa 0,0 l/m 0 min 0 min 0 W/m 35,4 km/h (5 Bft) 95,74 %
07.12.2021 22:06 4,8 C 4,4 C 2,2 C 84 % 997,9 hPa 0,0 l/m 0 min 0 min 0 W/m 32,2 km/h (5 Bft) 93,62 %
07.12.2021 22:08 4,8 C 4,4 C 2,2 C 84 % 997,9 hPa 0,0 l/m 0 min 0 min 0 W/m 41,8 km/h (6 Bft) 95,74 %
07.12.2021 22:10 4,8 C 4,4 C 2,2 C 84 % 997,9 hPa 0,0 l/m 0 min 0 min 0 W/m 29,0 km/h (5 Bft) 91,49 %
07.12.2021 22:12 4,7 C 4,4 C 2,2 C 84 % 997,8 hPa 0,0 l/m 0 min 0 min 0 W/m 32,2 km/h (5 Bft) 93,62 %
07.12.2021 22:14 4,8 C 4,4 C 2,2 C 84 % 997,8 hPa 0,0 l/m 0 min 0 min 0 W/m 29,0 km/h (5 Bft) 95,65 %
07.12.2021 22:16 4,7 C 4,4 C 2,2 C 84 % 997,6 hPa 0,0 l/m 0 min 0 min 0 W/m 41,8 km/h (6 Bft) 95,74 %
07.12.2021 22:18 4,7 C 4,4 C 2,2 C 84 % 997,6 hPa 0,0 l/m 0 min 0 min 0 W/m 25,7 km/h (4 Bft) 97,87 %
07.12.2021 22:20 4,7 C 4,4 C 2,2 C 84 % 997,5 hPa 0,0 l/m 0 min 0 min 0 W/m 29,0 km/h (5 Bft) 97,87 %
07.12.2021 22:22 4,7 C 4,4 C 2,2 C 84 % 997,5 hPa 0,0 l/m 0 min 0 min 0 W/m 29,0 km/h (5 Bft) 95,74 %
07.12.2021 22:24 4,7 C 4,4 C 2,2 C 84 % 997,4 hPa 0,0 l/m 0 min 0 min 0 W/m 16,1 km/h (3 Bft) 97,87 %
07.12.2021 22:26 4,7 C 4,4 C 1,7 C 84 % 997,3 hPa 0,0 l/m 0 min 0 min 0 W/m 25,7 km/h (4 Bft) 97,83 %
07.12.2021 22:28 4,7 C 4,4 C 1,7 C 84 % 997,3 hPa 0,0 l/m 0 min 0 min 0 W/m 29,0 km/h (5 Bft) 97,87 %
07.12.2021 22:30 4,7 C 4,4 C 1,7 C 84 % 997,3 hPa 0,0 l/m 0 min 0 min 0 W/m 32,2 km/h (5 Bft) 93,62 %
07.12.2021 22:32 4,7 C 4,4 C 1,7 C 84 % 997,2 hPa 0,0 l/m 0 min 0 min 0 W/m 45,1 km/h (6 Bft) 97,87 %
07.12.2021 22:34 4,7 C 4,4 C 1,7 C 84 % 997,1 hPa 0,0 l/m 0 min 2 min 0 W/m 29,0 km/h (5 Bft) 97,87 %
07.12.2021 22:36 4,7 C 4,4 C 1,7 C 84 % 996,9 hPa 0,0 l/m 0 min 0 min 0 W/m 32,2 km/h (5 Bft) 95,65 %
07.12.2021 22:38 4,7 C 4,4 C 1,7 C 84 % 996,9 hPa 0,0 l/m 0 min 2 min 0 W/m 29,0 km/h (5 Bft) 100,00 %
07.12.2021 22:40 4,7 C 4,4 C 1,7 C 85 % 996,8 hPa 0,0 l/m 0 min 2 min 0 W/m 32,2 km/h (5 Bft) 97,87 %
07.12.2021 22:42 4,7 C 4,4 C 1,1 C 85 % 996,8 hPa 0,0 l/m 0 min 2 min 0 W/m 32,2 km/h (5 Bft) 95,74 %
07.12.2021 22:44 4,7 C 4,4 C 1,1 C 85 % 996,6 hPa 0,0 l/m 0 min 2 min 0 W/m 22,5 km/h (4 Bft) 100,00 %
07.12.2021 22:46 4,7 C 3,9 C 1,1 C 85 % 996,7 hPa 0,0 l/m 0 min 2 min 0 W/m 22,5 km/h (4 Bft) 97,87 %
07.12.2021 22:48 4,7 C 3,9 C 0,6 C 85 % 996,6 hPa 0,2 l/m 0 min 2 min 0 W/m 22,5 km/h (4 Bft) 95,65 %
07.12.2021 22:50 4,6 C 3,9 C 0,6 C 86 % 996,5 hPa 0,0 l/m 0 min 2 min 0 W/m 38,6 km/h (5 Bft) 97,87 %
07.12.2021 22:52 4,6 C 3,9 C 0,6 C 86 % 996,4 hPa 0,0 l/m 0 min 2 min 0 W/m 25,7 km/h (4 Bft) 97,87 %
07.12.2021 22:54 4,6 C 3,9 C 0,6 C 86 % 996,5 hPa 0,0 l/m 0 min 2 min 0 W/m 29,0 km/h (5 Bft) 97,87 %
07.12.2021 22:56 4,5 C 3,9 C 0,6 C 87 % 996,5 hPa 0,0 l/m 0 min 2 min 0 W/m 19,3 km/h (3 Bft) 97,87 %
07.12.2021 22:58 4,5 C 3,9 C 0,6 C 87 % 996,5 hPa 0,0 l/m 0 min 2 min 0 W/m 25,7 km/h (4 Bft) 97,87 %
07.12.2021 23:00 4,4 C 3,9 C 0,6 C 87 % 996,5 hPa 0,0 l/m 0 min 2 min 0 W/m 32,2 km/h (5 Bft) 97,87 %
07.12.2021 23:02 4,4 C 3,9 C 0,6 C 87 % 996,6 hPa 0,0 l/m 0 min 2 min 0 W/m 22,5 km/h (4 Bft) 97,83 %
07.12.2021 23:04 4,4 C 3,9 C 0,6 C 88 % 996,5 hPa 0,2 l/m 0 min 2 min 0 W/m 29,0 km/h (5 Bft) 97,87 %
07.12.2021 23:06 4,4 C 3,9 C 0,6 C 88 % 996,5 hPa 0,0 l/m 0 min 2 min 0 W/m 35,4 km/h (5 Bft) 93,62 %
07.12.2021 23:08 4,3 C 3,9 C 0,6 C 88 % 996,4 hPa 0,0 l/m 0 min 2 min 0 W/m 38,6 km/h (5 Bft) 97,87 %
07.12.2021 23:10 4,3 C 3,9 C 0,6 C 88 % 996,4 hPa 0,2 l/m 0 min 2 min 0 W/m 48,3 km/h (6 Bft) 97,87 %
07.12.2021 23:12 4,3 C 3,9 C 0,6 C 88 % 996,3 hPa 0,0 l/m 0 min 2 min 0 W/m 45,1 km/h (6 Bft) 97,83 %
07.12.2021 23:14 4,3 C 3,9 C 0,6 C 89 % 996,3 hPa 0,0 l/m 0 min 2 min 0 W/m 32,2 km/h (5 Bft) 97,87 %
07.12.2021 23:16 4,3 C 3,9 C 0,6 C 89 % 996,2 hPa 0,0 l/m 0 min 2 min 0 W/m 32,2 km/h (5 Bft) 97,87 %
07.12.2021 23:18 4,3 C 3,9 C 0,6 C 89 % 996,1 hPa 0,0 l/m 0 min 2 min 0 W/m 35,4 km/h (5 Bft) 97,87 %
07.12.2021 23:20 4,2 C 3,9 C 0,6 C 89 % 996,1 hPa 0,0 l/m 0 min 2 min 0 W/m 29,0 km/h (5 Bft) 97,87 %
07.12.2021 23:22 4,2 C 3,9 C 0,6 C 89 % 996,0 hPa 0,0 l/m 0 min 2 min 0 W/m 41,8 km/h (6 Bft) 100,00 %
07.12.2021 23:24 4,2 C 3,9 C 0,6 C 89 % 995,8 hPa 0,0 l/m 0 min 0 min 0 W/m 41,8 km/h (6 Bft) 100,00 %
07.12.2021 23:26 4,2 C 3,9 C 0,6 C 89 % 995,7 hPa 0,0 l/m 0 min 0 min 0 W/m 35,4 km/h (5 Bft) 100,00 %
07.12.2021 23:28 4,2 C 3,9 C 0,6 C 89 % 995,5 hPa 0,0 l/m 0 min 0 min 0 W/m 29,0 km/h (5 Bft) 97,87 %
07.12.2021 23:30 4,2 C 3,9 C 0,6 C 89 % 995,5 hPa 0,0 l/m 0 min 0 min 0 W/m 35,4 km/h (5 Bft) 97,87 %
07.12.2021 23:32 4,2 C 3,9 C 0,6 C 89 % 995,6 hPa 0,0 l/m 0 min 0 min 0 W/m 22,5 km/h (4 Bft) 100,00 %
07.12.2021 23:34 4,2 C 3,9 C 0,6 C 89 % 995,6 hPa 0,0 l/m 0 min 0 min 0 W/m 29,0 km/h (5 Bft) 100,00 %
07.12.2021 23:36 4,2 C 3,9 C 0,6 C 89 % 995,6 hPa 0,0 l/m 0 min 0 min 0 W/m 29,0 km/h (5 Bft) 100,00 %
07.12.2021 23:38 4,1 C 3,9 C 0,6 C 89 % 995,6 hPa 0,0 l/m 0 min 0 min 0 W/m 41,8 km/h (6 Bft) 97,87 %
07.12.2021 23:40 4,1 C 3,9 C 0,6 C 89 % 995,5 hPa 0,0 l/m 0 min 0 min 0 W/m 32,2 km/h (5 Bft) 100,00 %
07.12.2021 23:42 4,1 C 3,9 C 0,6 C 89 % 995,4 hPa 0,0 l/m 0 min 0 min 0 W/m 41,8 km/h (6 Bft) 100,00 %
07.12.2021 23:44 4,1 C 3,9 C 0,6 C 89 % 995,4 hPa 0,0 l/m 0 min 0 min 0 W/m 32,2 km/h (5 Bft) 100,00 %
07.12.2021 23:46 4,1 C 3,9 C 0,6 C 89 % 995,3 hPa 0,0 l/m 0 min 0 min 0 W/m 29,0 km/h (5 Bft) 100,00 %
07.12.2021 23:48 4,2 C 3,9 C 0,6 C 89 % 995,2 hPa 0,0 l/m 0 min 0 min 0 W/m 35,4 km/h (5 Bft) 97,87 %
07.12.2021 23:50 4,2 C 3,9 C 0,6 C 89 % 995,2 hPa 0,0 l/m 0 min 0 min 0 W/m 41,8 km/h (6 Bft) 100,00 %
07.12.2021 23:52 4,2 C 3,9 C 0,6 C 89 % 995,1 hPa 0,0 l/m 0 min 0 min 0 W/m 29,0 km/h (5 Bft) 100,00 %
07.12.2021 23:54 4,2 C 3,9 C 0,6 C 89 % 995,2 hPa 0,0 l/m 0 min 0 min 0 W/m 32,2 km/h (5 Bft) 100,00 %
07.12.2021 23:56 4,2 C 3,9 C 0,6 C 88 % 994,9 hPa 0,0 l/m 0 min 0 min 0 W/m 22,5 km/h (4 Bft) 97,87 %
07.12.2021 23:58 4,2 C 3,9 C 0,6 C 88 % 994,9 hPa 0,0 l/m 0 min 0 min 0 W/m 35,4 km/h (5 Bft) 100,00 %
_ Min-Zeit 00:00 00:00 00:00 14:16 23:56 - - - - 04:24 18:16
Minimum _ 1,0 C 0,6 C 0,0 C 81 % 994,9 hPa - - - - 0,0 km/h (0 Bft) 52,27 %
_ Max-Zeit 13:30 12:48 13:08 02:20 10:18 00:07 10:04 00:07 12:48 20:48 00:00
Maximum _ 6,3 C 14,4 C 3,9 C 98 % 1011,0 hPa 0,2 l/m 2 min 3 min 288 W/m 51,5 km/h
S (7 Bft)
100,00 %
Durchschnitt _ 3,5 C 3,6 C 1,8 C 91 % 1005,9 hPa #4,6 l/m #3:28 h #4:14 h 118 W/m 18,4 km/h (3 Bft) 97,17 %
© 2021 W. Hausmann